Time,TemperatureF,DewpointF,PressureIn,WindDirection,WindDirectionDegrees,WindSpeedMPH,WindSpeedGustMPH,Humidity,HourlyPrecipIn,Conditions,Clouds,dailyrainin,SolarRadiationWatts/m^2,SoftwareType,DateUTC
2013-09-12 00:00:00,69.4,68.9,29.95,West,273,1.0,2.0,98,0.00,,,0.00,0.00,VWS V14.01,2013-09-12 04:00:00,
2013-09-12 00:01:00,69.4,68.9,29.95,West,273,1.0,2.0,98,0.00,,,0.00,0.00,VWS V14.01,2013-09-12 04:01:00,
2013-09-12 00:02:00,69.4,68.9,29.95,West,273,1.0,2.0,98,0.00,,,0.00,0.00,VWS V14.01,2013-09-12 04:02:00,
2013-09-12 00:06:00,69.5,69.0,29.95,WSW,246,0.0,1.3,98,0.00,,,0.00,0.00,VWS V14.01,2013-09-12 04:06:00,
2013-09-12 00:07:00,69.5,69.0,29.95,WSW,246,2.0,2.0,98,0.00,,,0.00,0.00,VWS V14.01,2013-09-12 04:07:00,
2013-09-12 00:08:00,69.4,68.9,29.95,WSW,246,0.0,0.0,98,0.00,,,0.00,0.00,VWS V14.01,2013-09-12 04:08:00,
2013-09-12 00:11:00,69.4,68.9,29.94,SW,234,0.0,0.0,98,0.00,,,0.00,0.00,VWS V14.01,2013-09-12 04:11:00,
2013-09-12 00:12:00,69.4,68.8,29.95,SW,234,0.0,0.0,98,0.00,,,0.00,0.00,VWS V14.01,2013-09-12 04:12:00,
2013-09-12 00:14:00,69.4,68.9,29.96,WSW,247,0.0,2.3,98,0.00,,,0.00,0.00,VWS V14.01,2013-09-12 04:14:00,
2013-09-12 00:15:00,69.3,68.9,29.95,SW,232,1.6,1.6,98,0.00,,,0.00,0.00,VWS V14.01,2013-09-12 04:15:00,
2013-09-12 00:17:00,69.4,68.9,29.95,WSW,251,1.0,1.0,98,0.00,,,0.00,0.12,VWS V14.01,2013-09-12 04:17:00,
2013-09-12 00:18:00,69.3,68.9,29.94,WSW,251,0.0,0.0,98,0.00,,,0.00,0.00,VWS V14.01,2013-09-12 04:18:00,
2013-09-12 00:19:00,69.3,68.8,29.94,WSW,251,0.0,2.2,98,0.00,,,0.00,0.00,VWS V14.01,2013-09-12 04:19:00,
2013-09-12 00:20:00,69.3,68.8,29.94,WSW,244,4.0,4.0,98,0.00,,,0.00,0.00,VWS V14.01,2013-09-12 04:20:00,
2013-09-12 00:22:00,69.3,68.8,29.94,SW,229,1.0,3.9,98,0.00,,,0.00,0.00,VWS V14.01,2013-09-12 04:22:00,
2013-09-12 00:23:00,69.3,68.9,29.94,SW,216,2.3,3.4,98,0.00,,,0.00,0.00,VWS V14.01,2013-09-12 04:23:00,
2013-09-12 00:26:00,69.3,68.9,29.94,SSW,207,1.6,2.7,98,0.00,,,0.00,0.43,VWS V14.01,2013-09-12 04:26:00,
2013-09-12 00:27:00,69.3,68.8,29.95,SSW,211,3.0,3.2,99,0.00,,,0.00,0.00,VWS V14.01,2013-09-12 04:27:00,
2013-09-12 00:28:00,69.2,68.8,29.95,SSW,212,2.0,2.0,99,0.00,,,0.00,0.00,VWS V14.01,2013-09-12 04:28:00,
2013-09-12 00:29:00,69.2,67.0,29.94,SSW,204,3.0,3.0,92,0.00,,,0.00,0.00,VWS V14.01,2013-09-12 04:29:00,
2013-09-12 00:31:00,69.2,68.9,29.94,SSW,207,3.2,4.0,99,0.00,,,0.00,0.00,VWS V14.01,2013-09-12 04:31:00,
2013-09-12 00:32:00,69.2,68.8,29.94,SW,215,2.5,3.0,99,0.00,,,0.00,0.00,VWS V14.01,2013-09-12 04:32:00,
2013-09-12 00:34:00,69.2,68.9,29.94,SW,220,2.3,2.5,99,0.00,,,0.00,0.00,VWS V14.01,2013-09-12 04:34:00,
2013-09-12 00:37:00,69.1,67.9,29.94,SW,220,0.0,0.0,96,0.00,,,0.00,0.43,VWS V14.01,2013-09-12 04:37:00,
2013-09-12 00:38:00,69.2,68.9,29.94,SW,220,0.0,0.0,99,0.00,,,0.00,0.00,VWS V14.01,2013-09-12 04:38:00,
2013-09-12 00:39:00,69.1,68.7,29.94,SW,220,0.0,0.0,99,0.00,,,0.00,0.00,VWS V14.01,2013-09-12 04:39:00,
2013-09-12 00:40:00,69.2,67.9,29.93,SW,220,0.0,0.0,96,0.00,,,0.00,0.00,VWS V14.01,2013-09-12 04:40:00,
2013-09-12 00:42:00,69.1,68.8,29.93,SW,220,0.0,0.0,99,0.00,,,0.00,0.12,VWS V14.01,2013-09-12 04:42:00,
2013-09-12 00:43:00,69.1,68.8,29.93,SW,220,0.0,0.0,99,0.00,,,0.00,0.43,VWS V14.01,2013-09-12 04:43:00,
2013-09-12 00:45:00,69.1,68.8,29.93,SW,220,0.0,0.0,99,0.00,,,0.00,0.00,VWS V14.01,2013-09-12 04:45:00,
2013-09-12 00:47:00,69.1,68.8,29.94,West,260,0.0,0.0,99,0.00,,,0.00,0.00,VWS V14.01,2013-09-12 04:47:00,
2013-09-12 00:48:00,69.1,68.9,29.94,West,260,1.1,1.1,99,0.00,,,0.00,0.00,VWS V14.01,2013-09-12 04:48:00,
2013-09-12 00:50:00,69.1,68.8,29.94,West,260,1.3,1.5,99,0.00,,,0.00,0.73,VWS V14.01,2013-09-12 04:50:00,
2013-09-12 00:51:00,69.1,68.0,29.93,West,260,2.0,2.0,96,0.00,,,0.00,0.00,VWS V14.01,2013-09-12 04:51:00,
2013-09-12 00:52:00,69.0,68.8,29.94,West,260,1.6,1.8,99,0.00,,,0.00,0.00,VWS V14.01,2013-09-12 04:52:00,
2013-09-12 00:53:00,69.0,68.8,29.94,West,260,2.5,2.5,99,0.00,,,0.00,0.73,VWS V14.01,2013-09-12 04:53:00,
2013-09-12 00:56:00,69.0,68.7,29.94,West,259,1.0,1.0,99,0.00,,,0.00,0.43,VWS V14.01,2013-09-12 04:56:00,
2013-09-12 00:57:00,69.0,68.8,29.93,WSW,246,1.0,1.0,99,0.00,,,0.00,0.00,VWS V14.01,2013-09-12 04:57:00,
2013-09-12 00:58:00,69.0,68.7,29.93,WSW,244,0.0,1.0,99,0.00,,,0.00,0.00,VWS V14.01,2013-09-12 04:58:00,
2013-09-12 00:59:00,69.0,68.8,29.94,WSW,245,0.0,0.0,99,0.00,,,0.00,0.00,VWS V14.01,2013-09-12 04:59:00,
2013-09-12 01:00:00,68.9,68.7,29.94,WSW,245,0.0,0.0,99,0.00,,,0.00,0.00,VWS V14.01,2013-09-12 05:00:00,
2013-09-12 01:03:00,69.0,68.7,29.93,WSW,245,0.0,0.0,99,0.00,,,0.00,0.43,VWS V14.01,2013-09-12 05:03:00,
2013-09-12 01:04:00,69.0,68.7,29.93,WSW,245,0.0,0.0,99,0.00,,,0.00,0.43,VWS V14.01,2013-09-12 05:04:00,
2013-09-12 01:05:00,69.1,68.8,29.93,WSW,245,0.0,0.0,99,0.00,,,0.00,0.00,VWS V14.01,2013-09-12 05:05:00,
2013-09-12 01:07:00,69.1,68.8,29.94,WSW,245,1.1,1.6,99,0.00,,,0.00,0.00,VWS V14.01,2013-09-12 05:07:00,
2013-09-12 01:09:00,69.1,68.1,29.93,WSW,245,0.0,1.6,97,0.00,,,0.00,0.00,VWS V14.01,2013-09-12 05:09:00,
2013-09-12 01:11:00,69.0,68.7,29.94,WSW,245,0.0,1.6,99,0.00,,,0.00,0.00,VWS V14.01,2013-09-12 05:11:00,
2013-09-12 01:12:00,69.0,68.7,29.93,WSW,245,0.0,1.6,99,0.00,,,0.00,0.00,VWS V14.01,2013-09-12 05:12:00,
2013-09-12 01:15:00,68.9,68.7,29.93,WSW,245,0.0,1.6,99,0.00,,,0.00,0.12,VWS V14.01,2013-09-12 05:15:00,
2013-09-12 01:16:00,68.9,68.7,29.93,WSW,245,1.0,1.6,99,0.00,,,0.00,0.12,VWS V14.01,2013-09-12 05:16:00,
2013-09-12 01:17:00,68.9,68.7,29.93,WSW,245,0.0,1.6,99,0.00,,,0.00,0.00,VWS V14.01,2013-09-12 05:17:00,
2013-09-12 01:18:00,69.0,68.7,29.92,WSW,245,1.1,1.6,99,0.00,,,0.00,0.43,VWS V14.01,2013-09-12 05:18:00,
2013-09-12 01:20:00,69.0,68.8,29.93,WSW,245,2.2,2.2,99,0.00,,,0.00,0.00,VWS V14.01,2013-09-12 05:20:00,
2013-09-12 01:22:00,69.1,68.8,29.93,WSW,245,2.5,2.5,99,0.00,,,0.00,0.00,VWS V14.01,2013-09-12 05:22:00,
2013-09-12 01:23:00,69.0,68.8,29.94,WSW,245,3.0,3.0,99,0.00,,,0.00,0.00,VWS V14.01,2013-09-12 05:23:00,
2013-09-12 01:25:00,69.1,68.8,29.93,WSW,249,3.4,3.7,99,0.00,,,0.00,0.00,VWS V14.01,2013-09-12 05:25:00,
2013-09-12 01:26:00,69.0,68.7,29.93,WSW,246,3.7,4.0,99,0.00,,,0.00,0.00,VWS V14.01,2013-09-12 05:26:00,
2013-09-12 01:27:00,69.0,68.7,29.93,WSW,243,3.2,4.0,99,0.00,,,0.00,0.00,VWS V14.01,2013-09-12 05:27:00,
2013-09-12 01:29:00,69.1,68.8,29.93,WSW,252,3.9,4.0,99,0.00,,,0.00,0.43,VWS V14.01,2013-09-12 05:29:00,
2013-09-12 01:31:00,69.0,68.7,29.93,WSW,251,2.5,4.0,99,0.00,,,0.00,0.00,VWS V14.01,2013-09-12 05:31:00,
2013-09-12 01:33:00,69.1,68.7,29.94,WSW,257,2.8,4.0,99,0.00,,,0.00,0.00,VWS V14.01,2013-09-12 05:33:00,
2013-09-12 01:34:00,69.3,68.9,29.93,WSW,254,3.4,4.0,99,0.00,,,0.00,0.00,VWS V14.01,2013-09-12 05:34:00,
2013-09-12 01:35:00,69.1,68.2,29.93,WSW,250,3.5,4.0,97,0.00,,,0.00,0.00,VWS V14.01,2013-09-12 05:35:00,
2013-09-12 01:37:00,69.1,68.7,29.93,WSW,249,4.0,4.0,99,0.00,,,0.00,0.00,VWS V14.01,2013-09-12 05:37:00,
2013-09-12 01:38:00,69.0,68.6,29.94,WSW,240,2.8,4.0,99,0.00,,,0.00,0.00,VWS V14.01,2013-09-12 05:38:00,
2013-09-12 01:39:00,69.0,68.6,29.94,WSW,241,2.8,4.0,99,0.00,,,0.00,0.00,VWS V14.01,2013-09-12 05:39:00,
2013-09-12 01:40:00,69.0,68.6,29.93,WSW,239,2.8,4.0,99,0.00,,,0.00,0.00,VWS V14.01,2013-09-12 05:40:00,
2013-09-12 01:43:00,69.0,68.7,29.94,WSW,249,3.4,4.0,99,0.00,,,0.00,0.00,VWS V14.01,2013-09-12 05:43:00,
2013-09-12 01:44:00,69.1,68.8,29.93,WSW,247,3.4,4.4,99,0.00,,,0.00,0.00,VWS V14.01,2013-09-12 05:44:00,
2013-09-12 01:45:00,69.3,69.0,29.94,West,268,3.9,4.7,99,0.00,,,0.00,0.00,VWS V14.01,2013-09-12 05:45:00,
2013-09-12 01:46:00,69.2,68.1,29.93,West,280,2.7,4.7,96,0.00,,,0.00,0.12,VWS V14.01,2013-09-12 05:46:00,
2013-09-12 01:49:00,69.1,68.7,29.94,West,276,3.4,4.7,99,0.00,,,0.00,0.00,VWS V14.01,2013-09-12 05:49:00,
2013-09-12 01:50:00,69.4,69.0,29.93,WNW,292,4.0,4.7,99,0.00,,,0.00,0.12,VWS V14.01,2013-09-12 05:50:00,
2013-09-12 01:51:00,69.2,68.8,29.93,WNW,302,3.7,4.7,99,0.00,,,0.00,0.00,VWS V14.01,2013-09-12 05:51:00,
2013-09-12 01:52:00,69.1,68.7,29.93,NW,313,3.0,4.7,99,0.00,,,0.00,0.00,VWS V14.01,2013-09-12 05:52:00,
2013-09-12 01:54:00,69.2,68.8,29.94,WNW,301,3.7,4.7,99,0.00,,,0.00,0.73,VWS V14.01,2013-09-12 05:54:00,
2013-09-12 01:56:00,69.1,68.7,29.93,NW,307,3.5,4.7,99,0.00,,,0.00,0.43,VWS V14.01,2013-09-12 05:56:00,
2013-09-12 01:57:00,69.1,68.7,29.93,NW,308,3.9,4.7,99,0.00,,,0.00,0.00,VWS V14.01,2013-09-12 05:57:00,
2013-09-12 02:01:00,69.2,68.9,29.93,WNW,291,4.5,4.7,99,0.00,,,0.00,0.00,VWS V14.01,2013-09-12 06:01:00,
2013-09-12 02:02:00,69.2,68.9,29.93,WNW,291,4.5,4.7,99,0.00,,,0.00,0.00,VWS V14.01,2013-09-12 06:02:00,
2013-09-12 02:05:00,69.1,68.8,29.94,WNW,282,3.0,4.2,99,0.00,,,0.00,0.00,VWS V14.01,2013-09-12 06:05:00,
2013-09-12 02:07:00,69.3,69.0,29.93,WNW,284,3.4,3.9,99,0.00,,,0.00,0.43,VWS V14.01,2013-09-12 06:07:00,
2013-09-12 02:08:00,69.2,68.9,29.93,WNW,289,3.7,3.7,99,0.00,,,0.00,0.00,VWS V14.01,2013-09-12 06:08:00,
2013-09-12 02:10:00,69.2,68.9,29.92,WNW,291,3.5,3.5,99,0.00,,,0.00,0.00,VWS V14.01,2013-09-12 06:10:00,
2013-09-12 02:11:00,69.2,68.8,29.92,WNW,295,3.7,3.7,99,0.00,,,0.00,0.00,VWS V14.01,2013-09-12 06:11:00,
2013-09-12 02:12:00,69.2,68.9,29.92,WNW,298,4.0,4.0,99,0.00,,,0.00,0.00,VWS V14.01,2013-09-12 06:12:00,
2013-09-12 02:13:00,69.2,68.8,29.93,WNW,298,2.5,4.0,99,0.00,,,0.00,0.00,VWS V14.01,2013-09-12 06:13:00,
2013-09-12 02:14:00,69.2,68.9,29.92,NW,314,2.8,3.4,99,0.00,,,0.00,0.00,VWS V14.01,2013-09-12 06:14:00,
2013-09-12 02:15:00,69.3,69.0,29.93,NW,305,3.4,3.5,99,0.00,,,0.00,0.00,VWS V14.01,2013-09-12 06:15:00,
2013-09-12 02:17:00,69.2,68.8,29.93,WNW,302,3.0,3.0,99,0.00,,,0.00,0.43,VWS V14.01,2013-09-12 06:17:00,
2013-09-12 02:18:00,69.3,68.9,29.93,WNW,302,2.7,3.0,99,0.00,,,0.00,0.00,VWS V14.01,2013-09-12 06:18:00,
2013-09-12 02:19:00,69.3,68.9,29.92,NW,313,3.7,3.7,99,0.00,,,0.00,0.00,VWS V14.01,2013-09-12 06:19:00,
2013-09-12 02:21:00,69.3,68.9,29.93,NW,319,2.5,2.5,99,0.00,,,0.00,0.00,VWS V14.01,2013-09-12 06:21:00,
2013-09-12 02:23:00,69.5,69.0,29.93,NNW,327,3.2,3.2,98,0.00,,,0.00,0.00,VWS V14.01,2013-09-12 06:23:00,
2013-09-12 02:24:00,69.6,69.0,29.92,NW,321,2.7,3.2,98,0.00,,,0.00,0.00,VWS V14.01,2013-09-12 06:24:00,
2013-09-12 02:26:00,69.5,68.8,29.92,NW,308,2.3,2.5,97,0.00,,,0.00,0.00,VWS V14.01,2013-09-12 06:26:00,
2013-09-12 02:27:00,69.4,68.6,29.93,NW,322,2.7,2.7,97,0.00,,,0.00,0.00,VWS V14.01,2013-09-12 06:27:00,
2013-09-12 02:28:00,69.7,68.8,29.92,NW,321,2.8,2.8,97,0.00,,,0.00,0.00,VWS V14.01,2013-09-12 06:28:00,
2013-09-12 02:29:00,69.4,68.4,29.91,NW,307,2.3,2.8,97,0.00,,,0.00,0.06,VWS V14.01,2013-09-12 06:29:00,
2013-09-12 02:31:00,69.4,68.3,29.93,NW,307,2.8,2.8,96,0.00,,,0.00,0.00,VWS V14.01,2013-09-12 06:31:00,
2013-09-12 02:33:00,69.5,68.3,29.93,WNW,292,2.0,2.3,96,0.00,,,0.00,0.00,VWS V14.01,2013-09-12 06:33:00,
2013-09-12 02:34:00,69.5,68.2,29.93,West,279,3.2,3.2,96,0.00,,,0.00,0.00,VWS V14.01,2013-09-12 06:34:00,
2013-09-12 02:36:00,69.5,68.2,29.93,West,279,2.7,2.8,96,0.00,,,0.00,0.00,VWS V14.01,2013-09-12 06:36:00,
2013-09-12 02:39:00,69.4,68.1,29.93,West,262,2.3,3.2,95,0.00,,,0.00,0.00,VWS V14.01,2013-09-12 06:39:00,
2013-09-12 02:41:00,69.4,68.1,29.92,WSW,253,3.7,3.7,96,0.00,,,0.00,0.00,VWS V14.01,2013-09-12 06:41:00,
2013-09-12 02:42:00,69.5,68.2,29.93,WSW,249,3.7,3.7,96,0.00,,,0.00,0.00,VWS V14.01,2013-09-12 06:42:00,
2013-09-12 02:44:00,69.5,68.2,29.92,WSW,248,3.4,3.4,96,0.00,,,0.00,0.00,VWS V14.01,2013-09-12 06:44:00,
2013-09-12 02:45:00,69.7,68.3,29.92,WSW,253,5.1,5.1,95,0.00,,,0.00,0.00,VWS V14.01,2013-09-12 06:45:00,
2013-09-12 02:46:00,69.7,68.2,29.93,WSW,252,5.2,5.2,95,0.00,,,0.00,0.00,VWS V14.01,2013-09-12 06:46:00,
2013-09-12 02:47:00,69.8,68.3,29.93,WSW,251,4.9,5.2,95,0.00,,,0.00,0.00,VWS V14.01,2013-09-12 06:47:00,
2013-09-12 02:48:00,69.5,68.0,29.93,WSW,245,3.9,4.9,95,0.00,,,0.00,0.43,VWS V14.01,2013-09-12 06:48:00,
2013-09-12 02:51:00,69.4,67.8,29.92,WSW,250,3.4,3.4,95,0.00,,,0.00,0.00,VWS V14.01,2013-09-12 06:51:00,
2013-09-12 02:53:00,69.5,67.9,29.93,SW,234,4.0,4.9,95,0.00,,,0.00,0.00,VWS V14.01,2013-09-12 06:53:00,
2013-09-12 02:54:00,69.4,67.8,29.93,SW,222,3.9,4.0,95,0.00,,,0.00,0.00,VWS V14.01,2013-09-12 06:54:00,
2013-09-12 02:56:00,69.4,67.8,29.93,WSW,251,3.2,3.2,95,0.00,,,0.00,0.00,VWS V14.01,2013-09-12 06:56:00,
2013-09-12 02:57:00,69.5,67.9,29.92,WSW,244,4.2,4.2,95,0.00,,,0.00,0.00,VWS V14.01,2013-09-12 06:57:00,
2013-09-12 03:01:00,69.9,68.3,29.93,West,269,5.2,5.2,95,0.00,,,0.00,0.00,VWS V14.01,2013-09-12 07:01:00,
2013-09-12 03:02:00,69.8,68.2,29.93,West,265,4.2,5.2,95,0.00,,,0.00,0.00,VWS V14.01,2013-09-12 07:02:00,
2013-09-12 03:03:00,69.8,68.1,29.93,WSW,249,4.2,5.2,94,0.00,,,0.00,0.00,VWS V14.01,2013-09-12 07:03:00,
2013-09-12 03:04:00,70.2,68.3,29.92,West,261,3.5,5.2,94,0.00,,,0.00,0.00,VWS V14.01,2013-09-12 07:04:00,
2013-09-12 03:06:00,69.8,67.8,29.92,WSW,252,1.6,5.2,93,0.00,,,0.00,0.00,VWS V14.01,2013-09-12 07:06:00,
2013-09-12 03:07:00,69.6,67.6,29.92,WSW,248,2.0,5.2,93,0.00,,,0.00,0.00,VWS V14.01,2013-09-12 07:07:00,
2013-09-12 03:08:00,69.6,67.6,29.95,WSW,248,0.0,5.2,93,0.00,,,0.00,0.00,VWS V14.01,2013-09-12 07:08:00,
2013-09-12 03:12:00,69.7,67.7,29.93,WSW,253,2.0,5.2,93,0.00,,,0.00,0.12,VWS V14.01,2013-09-12 07:12:00,
2013-09-12 03:13:00,69.8,67.7,29.92,WSW,253,2.3,5.2,93,0.00,,,0.00,0.00,VWS V14.01,2013-09-12 07:13:00,
2013-09-12 03:14:00,69.5,67.5,29.92,WSW,256,0.0,5.2,93,0.00,,,0.00,0.00,VWS V14.01,2013-09-12 07:14:00,
2013-09-12 03:15:00,69.6,67.6,29.92,WSW,258,0.0,5.2,94,0.00,,,0.00,0.00,VWS V14.01,2013-09-12 07:15:00,
2013-09-12 03:19:00,69.9,68.0,29.91,West,265,3.4,5.2,94,0.00,,,0.00,0.00,VWS V14.01,2013-09-12 07:19:00,
2013-09-12 03:20:00,69.6,67.7,29.92,West,261,2.3,5.2,94,0.00,,,0.00,0.43,VWS V14.01,2013-09-12 07:20:00,
2013-09-12 03:21:00,69.8,67.9,29.92,West,262,2.8,5.2,94,0.00,,,0.00,0.00,VWS V14.01,2013-09-12 07:21:00,
2013-09-12 03:22:00,69.6,67.7,29.92,West,269,3.2,5.2,94,0.00,,,0.00,0.00,VWS V14.01,2013-09-12 07:22:00,
2013-09-12 03:25:00,69.6,65.5,29.92,WNW,298,2.3,5.2,87,0.00,,,0.00,0.00,VWS V14.01,2013-09-12 07:25:00,
2013-09-12 03:26:00,69.6,67.8,29.92,WNW,294,3.4,5.2,94,0.00,,,0.00,0.00,VWS V14.01,2013-09-12 07:26:00,
2013-09-12 03:28:00,69.7,68.0,29.93,WNW,292,5.6,5.6,94,0.00,,,0.00,0.00,VWS V14.01,2013-09-12 07:28:00,
2013-09-12 03:29:00,69.5,67.8,29.93,WNW,288,3.9,5.6,95,0.00,,,0.00,0.00,VWS V14.01,2013-09-12 07:29:00,
2013-09-12 03:31:00,69.3,67.8,29.93,WNW,299,4.9,5.6,95,0.00,,,0.00,0.00,VWS V14.01,2013-09-12 07:31:00,
2013-09-12 03:32:00,69.4,68.0,29.94,WNW,293,5.2,5.7,95,0.00,,,0.00,0.00,VWS V14.01,2013-09-12 07:32:00,
2013-09-12 03:33:00,69.4,68.0,29.94,WNW,296,6.6,6.6,95,0.00,,,0.00,0.00,VWS V14.01,2013-09-12 07:33:00,
2013-09-12 03:34:00,69.4,68.0,29.96,West,275,5.4,6.6,95,0.00,,,0.00,0.00,VWS V14.01,2013-09-12 07:34:00,
2013-09-12 03:37:00,68.8,67.7,29.94,West,260,7.3,7.8,96,0.04,,,0.04,0.00,VWS V14.01,2013-09-12 07:37:00,
2013-09-12 03:39:00,68.7,67.7,29.94,West,261,13.6,13.6,97,0.04,,,0.04,0.00,VWS V14.01,2013-09-12 07:39:00,
2013-09-12 03:40:00,68.4,67.3,29.97,WNW,293,12.9,17.7,96,0.08,,,0.08,0.00,VWS V14.01,2013-09-12 07:40:00,
2013-09-12 03:41:00,68.1,67.1,29.94,West,271,14.5,17.7,96,0.08,,,0.00,0.00,VWS V14.01,2013-09-12 07:41:00,
2013-09-12 03:42:00,68.1,67.1,29.94,West,271,14.5,17.7,96,0.08,,,0.08,0.00,VWS V14.01,2013-09-12 07:42:00,
2013-09-12 03:43:00,67.6,66.6,29.94,WSW,252,13.8,17.7,97,0.12,,,0.12,0.12,VWS V14.01,2013-09-12 07:43:00,
2013-09-12 03:45:00,67.8,66.9,29.94,WSW,248,12.3,17.7,97,0.12,,,0.12,0.00,VWS V14.01,2013-09-12 07:45:00,
2013-09-12 03:46:00,67.7,67.1,29.94,WSW,257,9.3,17.7,98,0.16,,,0.16,0.00,VWS V14.01,2013-09-12 07:46:00,
2013-09-12 03:47:00,67.6,67.0,29.94,West,269,10.7,17.7,98,0.16,,,0.16,0.00,VWS V14.01,2013-09-12 07:47:00,
2013-09-12 03:48:00,67.7,67.1,29.94,West,265,11.7,17.7,98,0.20,,,0.20,0.00,VWS V14.01,2013-09-12 07:48:00,
2013-09-12 03:49:00,67.6,67.2,29.93,West,275,9.7,17.7,98,0.20,,,0.20,0.00,VWS V14.01,2013-09-12 07:49:00,
2013-09-12 03:50:00,67.4,66.9,29.94,WSW,252,10.9,17.7,98,0.20,,,0.20,0.00,VWS V14.01,2013-09-12 07:50:00,
2013-09-12 03:52:00,67.5,67.1,29.93,WSW,256,10.0,17.7,99,0.24,,,0.24,0.00,VWS V14.01,2013-09-12 07:52:00,
2013-09-12 03:53:00,67.5,67.2,29.93,West,272,9.7,17.7,99,0.24,,,0.24,0.00,VWS V14.01,2013-09-12 07:53:00,
2013-09-12 03:55:00,67.5,67.2,29.93,West,278,7.8,17.7,99,0.28,,,0.28,0.00,VWS V14.01,2013-09-12 07:55:00,
2013-09-12 03:56:00,67.6,67.3,29.93,West,268,8.0,17.7,99,0.28,,,0.28,0.00,VWS V14.01,2013-09-12 07:56:00,
2013-09-12 03:58:00,67.7,67.5,29.93,West,280,8.5,17.7,99,0.28,,,0.28,0.00,VWS V14.01,2013-09-12 07:58:00,
2013-09-12 03:59:00,67.7,67.5,29.93,WNW,289,6.6,17.7,99,0.31,,,0.31,0.00,VWS V14.01,2013-09-12 07:59:00,
2013-09-12 04:00:00,67.7,67.5,29.93,West,265,4.0,17.7,99,0.31,,,0.31,0.73,VWS V14.01,2013-09-12 08:00:00,
2013-09-12 04:02:00,67.6,67.5,29.93,WNW,289,5.9,5.9,100,0.31,,,0.31,0.12,VWS V14.01,2013-09-12 08:02:00,
2013-09-12 04:03:00,67.5,66.3,29.93,WNW,292,5.1,5.1,96,0.31,,,0.31,0.12,VWS V14.01,2013-09-12 08:03:00,
2013-09-12 04:04:00,67.4,67.3,29.93,West,260,4.2,6.3,99,0.31,,,0.31,0.00,VWS V14.01,2013-09-12 08:04:00,
2013-09-12 04:07:00,67.4,67.2,29.92,WSW,249,3.9,4.7,99,0.35,,,0.35,0.00,VWS V14.01,2013-09-12 08:07:00,
2013-09-12 04:09:00,67.6,67.5,29.92,WSW,241,5.6,5.6,100,0.35,,,0.35,0.00,VWS V14.01,2013-09-12 08:09:00,
2013-09-12 04:11:00,67.7,67.6,29.92,SSW,210,4.4,6.4,100,0.35,,,0.35,0.00,VWS V14.01,2013-09-12 08:11:00,
2013-09-12 04:13:00,67.6,67.5,29.91,SW,216,7.3,7.3,100,0.35,,,0.35,0.00,VWS V14.01,2013-09-12 08:13:00,
2013-09-12 04:14:00,67.7,67.6,29.91,SSW,210,5.7,5.7,100,0.35,,,0.35,0.00,VWS V14.01,2013-09-12 08:14:00,
2013-09-12 04:17:00,67.6,67.6,29.92,SW,233,5.6,5.6,100,0.35,,,0.35,0.43,VWS V14.01,2013-09-12 08:17:00,
2013-09-12 04:18:00,67.6,67.5,29.92,WSW,245,4.7,5.2,100,0.35,,,0.35,0.00,VWS V14.01,2013-09-12 08:18:00,
2013-09-12 04:19:00,67.5,67.5,29.92,WSW,238,4.0,4.0,100,0.35,,,0.35,0.00,VWS V14.01,2013-09-12 08:19:00,
2013-09-12 04:20:00,67.4,67.4,29.92,SW,231,3.9,4.0,100,0.35,,,0.35,0.00,VWS V14.01,2013-09-12 08:20:00,
2013-09-12 04:22:00,67.4,67.3,29.92,SW,221,5.4,5.4,100,0.35,,,0.35,0.00,VWS V14.01,2013-09-12 08:22:00,
2013-09-12 04:25:00,67.0,66.9,29.91,SW,223,5.4,5.4,100,0.39,,,0.39,0.43,VWS V14.01,2013-09-12 08:25:00,
2013-09-12 04:26:00,66.9,66.7,29.91,WSW,240,5.7,5.7,99,0.39,,,0.39,0.00,VWS V14.01,2013-09-12 08:26:00,
2013-09-12 04:27:00,66.8,66.1,29.92,WSW,238,4.5,4.5,97,0.39,,,0.39,0.00,VWS V14.01,2013-09-12 08:27:00,
2013-09-12 04:31:00,66.2,65.9,29.91,WSW,242,4.4,6.6,99,0.39,,,0.39,0.00,VWS V14.01,2013-09-12 08:31:00,
2013-09-12 04:32:00,66.2,65.9,29.91,SW,224,4.2,4.4,99,0.39,,,0.39,0.00,VWS V14.01,2013-09-12 08:32:00,
2013-09-12 04:34:00,66.3,65.8,29.91,SW,224,3.2,4.4,98,0.39,,,0.39,0.00,VWS V14.01,2013-09-12 08:34:00,
2013-09-12 04:36:00,66.2,65.5,29.91,SW,230,4.0,4.0,98,0.39,,,0.39,0.73,VWS V14.01,2013-09-12 08:36:00,
2013-09-12 04:37:00,66.2,65.5,29.90,SW,234,3.5,4.0,98,0.39,,,0.39,0.43,VWS V14.01,2013-09-12 08:37:00,
2013-09-12 04:41:00,67.0,66.1,29.91,West,277,4.0,4.0,97,0.39,,,0.39,0.00,VWS V14.01,2013-09-12 08:41:00,
2013-09-12 04:42:00,67.1,65.0,29.91,WNW,291,3.9,4.0,93,0.39,,,0.39,0.00,VWS V14.01,2013-09-12 08:42:00,
2013-09-12 04:43:00,66.9,65.9,29.92,West,276,3.2,3.7,97,0.39,,,0.39,0.00,VWS V14.01,2013-09-12 08:43:00,
2013-09-12 04:47:00,66.8,65.8,29.90,West,280,0.0,2.7,97,0.39,,,0.39,0.00,VWS V14.01,2013-09-12 08:47:00,
2013-09-12 04:48:00,67.0,66.1,29.91,West,280,2.0,2.0,97,0.39,,,0.39,0.00,VWS V14.01,2013-09-12 08:48:00,
2013-09-12 04:49:00,66.9,66.0,29.91,West,279,2.3,2.3,97,0.39,,,0.39,0.00,VWS V14.01,2013-09-12 08:49:00,
2013-09-12 04:53:00,66.8,66.0,29.91,West,279,0.0,0.0,97,0.39,,,0.39,0.00,VWS V14.01,2013-09-12 08:53:00,
2013-09-12 04:54:00,66.9,66.0,29.91,West,279,0.0,0.0,97,0.39,,,0.39,0.00,VWS V14.01,2013-09-12 08:54:00,
2013-09-12 04:55:00,66.9,66.1,29.91,West,279,0.0,0.0,97,0.39,,,0.39,0.00,VWS V14.01,2013-09-12 08:55:00,
2013-09-12 04:57:00,66.9,66.1,29.91,West,279,0.0,0.0,97,0.39,,,0.39,0.00,VWS V14.01,2013-09-12 08:57:00,
2013-09-12 04:59:00,66.8,66.0,29.91,West,279,0.0,0.0,97,0.39,,,0.39,0.00,VWS V14.01,2013-09-12 08:59:00,
2013-09-12 05:00:00,66.7,65.9,29.91,West,279,0.0,0.0,97,0.39,,,0.39,0.00,VWS V14.01,2013-09-12 09:00:00,
2013-09-12 05:01:00,66.6,65.8,29.90,West,279,0.0,0.0,97,0.39,,,0.39,0.00,VWS V14.01,2013-09-12 09:01:00,
2013-09-12 05:02:00,66.5,65.8,29.91,West,279,0.0,0.0,98,0.08,,,0.39,0.00,VWS V14.01,2013-09-12 09:02:00,
2013-09-12 05:03:00,66.6,66.0,29.91,West,279,0.0,0.0,98,0.08,,,0.39,0.00,VWS V14.01,2013-09-12 09:03:00,
2013-09-12 05:05:00,66.9,66.4,29.91,West,279,0.0,0.0,98,0.08,,,0.39,0.00,VWS V14.01,2013-09-12 09:05:00,
2013-09-12 05:06:00,67.1,66.6,29.91,West,279,0.0,0.0,98,0.04,,,0.39,0.00,VWS V14.01,2013-09-12 09:06:00,
2013-09-12 05:08:00,67.3,66.9,29.90,WSW,252,1.3,1.3,99,0.04,,,0.39,0.00,VWS V14.01,2013-09-12 09:08:00,
2013-09-12 05:10:00,67.1,66.7,29.90,WSW,252,0.0,0.0,99,0.04,,,0.39,0.12,VWS V14.01,2013-09-12 09:10:00,
2013-09-12 05:11:00,67.1,66.7,29.91,SW,232,1.1,1.1,99,0.04,,,0.39,0.00,VWS V14.01,2013-09-12 09:11:00,
2013-09-12 05:12:00,67.1,66.7,29.91,SW,232,1.6,1.6,99,0.04,,,0.39,0.00,VWS V14.01,2013-09-12 09:12:00,
2013-09-12 05:14:00,67.1,66.8,29.90,SW,226,1.0,2.5,99,0.04,,,0.39,0.00,VWS V14.01,2013-09-12 09:14:00,
2013-09-12 05:15:00,67.2,66.8,29.90,SW,226,2.2,2.2,99,0.04,,,0.39,0.00,VWS V14.01,2013-09-12 09:15:00,
2013-09-12 05:17:00,67.2,66.8,29.90,SW,225,2.5,2.5,99,0.04,,,0.39,0.00,VWS V14.01,2013-09-12 09:17:00,
2013-09-12 05:18:00,67.2,66.9,29.89,SW,215,2.0,2.5,99,0.04,,,0.39,0.00,VWS V14.01,2013-09-12 09:18:00,
2013-09-12 05:19:00,67.2,66.8,29.90,SW,215,2.3,2.3,99,0.04,,,0.39,0.43,VWS V14.01,2013-09-12 09:19:00,
2013-09-12 05:21:00,67.2,66.8,29.90,SSW,209,3.9,3.9,99,0.04,,,0.39,0.00,VWS V14.01,2013-09-12 09:21:00,
2013-09-12 05:22:00,67.0,66.6,29.90,SSW,207,3.2,3.9,99,0.04,,,0.39,0.00,VWS V14.01,2013-09-12 09:22:00,
2013-09-12 05:23:00,67.0,66.6,29.90,SSW,207,3.2,3.9,99,0.04,,,0.39,0.00,VWS V14.01,2013-09-12 09:23:00,
2013-09-12 05:24:00,66.8,66.5,29.90,SSW,207,2.5,3.0,99,0.00,,,0.39,0.00,VWS V14.01,2013-09-12 09:24:00,
2013-09-12 05:25:00,66.8,66.5,29.90,SSW,207,2.5,3.0,99,0.00,,,0.39,0.00,VWS V14.01,2013-09-12 09:25:00,
2013-09-12 05:26:00,66.8,66.5,29.89,SW,221,1.1,1.8,99,0.00,,,0.39,0.00,VWS V14.01,2013-09-12 09:26:00,
2013-09-12 05:28:00,66.7,66.5,29.89,SW,221,1.3,1.3,99,0.00,,,0.39,0.00,VWS V14.01,2013-09-12 09:28:00,
2013-09-12 05:29:00,66.7,66.4,29.90,SW,221,0.0,1.3,99,0.00,,,0.39,0.00,VWS V14.01,2013-09-12 09:29:00,
2013-09-12 05:30:00,66.8,66.5,29.90,SW,232,1.0,1.1,99,0.00,,,0.39,0.12,VWS V14.01,2013-09-12 09:30:00,
2013-09-12 05:32:00,66.8,66.6,29.90,SW,233,1.5,1.5,99,0.00,,,0.39,0.00,VWS V14.01,2013-09-12 09:32:00,
2013-09-12 05:34:00,66.8,66.5,29.90,SW,233,0.0,0.0,99,0.00,,,0.39,0.00,VWS V14.01,2013-09-12 09:34:00,
2013-09-12 05:35:00,66.8,66.6,29.92,SW,233,0.0,0.0,99,0.00,,,0.39,0.12,VWS V14.01,2013-09-12 09:35:00,
2013-09-12 05:36:00,66.9,66.7,29.93,SW,233,0.0,0.0,99,0.00,,,0.39,0.00,VWS V14.01,2013-09-12 09:36:00,
2013-09-12 05:37:00,66.8,66.7,29.89,WSW,249,0.0,1.8,100,0.00,,,0.39,0.00,VWS V14.01,2013-09-12 09:37:00,
2013-09-12 05:38:00,66.9,66.8,29.89,WSW,249,2.0,2.0,100,0.00,,,0.39,0.00,VWS V14.01,2013-09-12 09:38:00,
2013-09-12 05:41:00,66.9,66.8,29.89,WSW,237,2.2,2.3,100,0.00,,,0.39,0.00,VWS V14.01,2013-09-12 09:41:00,
2013-09-12 05:42:00,66.8,66.7,29.90,WSW,244,1.6,2.5,100,0.00,,,0.39,0.43,VWS V14.01,2013-09-12 09:42:00,
2013-09-12 05:44:00,66.9,66.8,29.89,WSW,245,2.2,2.8,100,0.00,,,0.39,0.00,VWS V14.01,2013-09-12 09:44:00,
2013-09-12 05:47:00,67.0,66.9,29.89,WSW,247,2.8,2.8,100,0.00,,,0.39,0.00,VWS V14.01,2013-09-12 09:47:00,
2013-09-12 05:48:00,67.0,67.0,29.90,WSW,240,3.4,3.4,100,0.00,,,0.39,0.00,VWS V14.01,2013-09-12 09:48:00,
2013-09-12 05:49:00,67.0,67.0,29.90,WSW,254,3.0,3.4,100,0.00,,,0.39,0.00,VWS V14.01,2013-09-12 09:49:00,
2013-09-12 05:50:00,67.2,67.2,29.89,WSW,237,3.9,3.9,100,0.00,,,0.39,0.00,VWS V14.01,2013-09-12 09:50:00,
2013-09-12 05:52:00,67.2,67.2,29.89,WSW,253,3.4,4.0,100,0.00,,,0.39,0.00,VWS V14.01,2013-09-12 09:52:00,
2013-09-12 05:53:00,67.2,67.2,29.89,WSW,253,4.4,4.4,100,0.00,,,0.39,0.00,VWS V14.01,2013-09-12 09:53:00,
2013-09-12 05:55:00,67.2,67.2,29.89,WSW,253,4.0,4.0,100,0.00,,,0.39,0.00,VWS V14.01,2013-09-12 09:55:00,
2013-09-12 05:58:00,67.2,67.2,29.90,West,269,4.2,4.2,100,0.00,,,0.39,0.00,VWS V14.01,2013-09-12 09:58:00,
2013-09-12 06:00:00,67.2,67.2,29.90,West,268,3.9,4.2,100,0.00,,,0.39,0.00,VWS V14.01,2013-09-12 10:00:00,
2013-09-12 06:02:00,67.4,67.4,29.89,West,264,4.0,4.7,100,0.00,,,0.39,0.00,VWS V14.01,2013-09-12 10:02:00,
2013-09-12 06:03:00,67.3,67.3,29.90,West,260,4.5,4.5,100,0.00,,,0.39,0.12,VWS V14.01,2013-09-12 10:03:00,
2013-09-12 06:04:00,67.4,67.3,29.90,West,273,4.9,4.9,100,0.00,,,0.39,0.00,VWS V14.01,2013-09-12 10:04:00,
2013-09-12 06:05:00,67.4,67.4,29.89,West,267,4.0,4.9,100,0.00,,,0.39,0.00,VWS V14.01,2013-09-12 10:05:00,
2013-09-12 06:08:00,67.3,67.2,29.90,West,265,3.5,4.2,100,0.00,,,0.39,0.00,VWS V14.01,2013-09-12 10:08:00,
2013-09-12 06:11:00,67.3,67.2,29.89,WSW,251,5.6,5.6,100,0.00,,,0.39,0.00,VWS V14.01,2013-09-12 10:11:00,
2013-09-12 06:12:00,67.2,67.1,29.89,West,266,4.2,4.2,100,0.00,,,0.39,0.00,VWS V14.01,2013-09-12 10:12:00,
2013-09-12 06:13:00,67.4,67.3,29.90,WSW,255,5.1,5.1,100,0.00,,,0.39,0.43,VWS V14.01,2013-09-12 10:13:00,
2013-09-12 06:15:00,67.3,67.2,29.92,WSW,249,4.0,4.9,100,0.00,,,0.39,0.00,VWS V14.01,2013-09-12 10:15:00,
2013-09-12 06:17:00,67.3,67.2,29.89,SW,233,5.4,5.4,100,0.00,,,0.39,0.00,VWS V14.01,2013-09-12 10:17:00,
2013-09-12 06:18:00,67.2,66.1,29.90,WSW,258,4.7,4.7,96,0.00,,,0.39,0.00,VWS V14.01,2013-09-12 10:18:00,
2013-09-12 06:19:00,67.3,67.2,29.90,West,270,4.4,4.7,100,0.00,,,0.39,0.00,VWS V14.01,2013-09-12 10:19:00,
2013-09-12 06:21:00,67.3,66.1,29.89,West,270,4.5,4.5,96,0.00,,,0.39,0.00,VWS V14.01,2013-09-12 10:21:00,
2013-09-12 06:23:00,67.0,66.9,29.90,West,268,3.0,3.0,100,0.00,,,0.39,0.00,VWS V14.01,2013-09-12 10:23:00,
2013-09-12 06:25:00,67.1,67.0,29.90,West,270,2.8,4.4,100,0.00,,,0.39,0.00,VWS V14.01,2013-09-12 10:25:00,
2013-09-12 06:28:00,67.2,67.1,29.90,West,265,3.7,3.7,100,0.00,,,0.39,0.00,VWS V14.01,2013-09-12 10:28:00,
2013-09-12 06:29:00,67.1,67.0,29.90,West,269,5.4,5.4,100,0.00,,,0.39,0.00,VWS V14.01,2013-09-12 10:29:00,
2013-09-12 06:30:00,67.2,67.1,29.93,West,260,3.9,5.4,100,0.00,,,0.39,0.00,VWS V14.01,2013-09-12 10:30:00,
2013-09-12 06:32:00,67.1,67.0,29.90,West,263,4.9,5.1,100,0.00,,,0.39,0.00,VWS V14.01,2013-09-12 10:32:00,
2013-09-12 06:33:00,67.1,67.0,29.91,West,274,4.9,4.9,100,0.00,,,0.39,0.00,VWS V14.01,2013-09-12 10:33:00,
2013-09-12 06:34:00,67.1,67.1,29.91,West,277,3.4,4.5,100,0.00,,,0.39,0.00,VWS V14.01,2013-09-12 10:34:00,
2013-09-12 06:35:00,67.1,67.1,29.91,West,265,3.0,4.5,100,0.00,,,0.39,0.00,VWS V14.01,2013-09-12 10:35:00,
2013-09-12 06:36:00,67.2,67.2,29.90,West,267,4.5,4.5,100,0.00,,,0.39,0.00,VWS V14.01,2013-09-12 10:36:00,
2013-09-12 06:37:00,67.2,67.2,29.90,West,269,3.7,4.5,100,0.00,,,0.39,0.00,VWS V14.01,2013-09-12 10:37:00,
2013-09-12 06:39:00,67.1,67.1,29.89,West,262,3.5,4.2,100,0.00,,,0.39,0.12,VWS V14.01,2013-09-12 10:39:00,
2013-09-12 06:40:00,67.1,67.1,29.90,West,271,4.5,4.5,100,0.00,,,0.39,0.00,VWS V14.01,2013-09-12 10:40:00,
2013-09-12 06:41:00,67.0,67.0,29.90,West,259,2.8,4.5,100,0.00,,,0.39,0.00,VWS V14.01,2013-09-12 10:41:00,
2013-09-12 06:42:00,67.1,67.1,29.91,WSW,251,4.2,4.4,100,0.00,,,0.39,0.00,VWS V14.01,2013-09-12 10:42:00,
2013-09-12 06:44:00,67.2,67.2,29.91,West,268,4.7,4.7,100,0.00,,,0.39,0.00,VWS V14.01,2013-09-12 10:44:00,
2013-09-12 06:45:00,67.1,67.1,29.90,WSW,249,4.0,4.7,100,0.00,,,0.39,0.00,VWS V14.01,2013-09-12 10:45:00,
2013-09-12 06:46:00,67.2,67.2,29.91,WSW,251,5.2,5.2,100,0.00,,,0.39,0.00,VWS V14.01,2013-09-12 10:46:00,
2013-09-12 06:47:00,67.1,67.1,29.90,SW,235,4.0,5.7,100,0.00,,,0.39,0.00,VWS V14.01,2013-09-12 10:47:00,
2013-09-12 06:49:00,67.1,67.1,29.90,WSW,252,4.5,4.5,100,0.00,,,0.39,0.00,VWS V14.01,2013-09-12 10:49:00,
2013-09-12 06:50:00,67.1,67.1,29.90,WSW,247,4.5,4.5,100,0.00,,,0.39,0.00,VWS V14.01,2013-09-12 10:50:00,
2013-09-12 06:51:00,67.1,67.1,29.90,WSW,255,3.7,4.5,100,0.00,,,0.39,0.43,VWS V14.01,2013-09-12 10:51:00,
2013-09-12 06:52:00,67.0,67.0,29.90,WSW,253,3.4,4.4,100,0.00,,,0.39,0.00,VWS V14.01,2013-09-12 10:52:00,
2013-09-12 06:57:00,67.0,67.0,29.91,WSW,257,3.9,3.9,100,0.00,,,0.39,0.00,VWS V14.01,2013-09-12 10:57:00,
2013-09-12 06:58:00,67.1,67.1,29.90,WSW,258,4.2,4.2,100,0.00,,,0.39,0.00,VWS V14.01,2013-09-12 10:58:00,
2013-09-12 06:59:00,66.9,66.9,29.90,WSW,253,3.4,3.4,100,0.00,,,0.39,0.00,VWS V14.01,2013-09-12 10:59:00,
2013-09-12 07:00:00,66.9,66.9,29.90,WSW,255,2.5,3.4,100,0.00,,,0.39,0.00,VWS V14.01,2013-09-12 11:00:00,
2013-09-12 07:02:00,67.0,67.0,29.91,West,260,3.0,4.9,100,0.00,,,0.39,0.00,VWS V14.01,2013-09-12 11:02:00,
2013-09-12 07:03:00,67.0,67.1,29.90,WSW,256,3.9,3.9,100,0.00,,,0.39,0.43,VWS V14.01,2013-09-12 11:03:00,
2013-09-12 07:04:00,66.9,66.9,29.90,West,266,2.5,3.9,100,0.00,,,0.39,0.00,VWS V14.01,2013-09-12 11:04:00,
2013-09-12 07:05:00,67.2,67.2,29.90,West,260,4.9,4.9,100,0.00,,,0.00,0.06,VWS V14.01,2013-09-12 11:05:00,
2013-09-12 07:07:00,67.0,67.0,29.90,West,266,2.5,3.0,100,0.00,,,0.39,0.00,VWS V14.01,2013-09-12 11:07:00,
2013-09-12 07:09:00,67.1,67.1,29.90,West,264,4.4,4.4,100,0.00,,,0.39,0.00,VWS V14.01,2013-09-12 11:09:00,
2013-09-12 07:10:00,67.0,67.0,29.90,WSW,246,3.7,4.4,100,0.00,,,0.39,0.43,VWS V14.01,2013-09-12 11:10:00,
2013-09-12 07:11:00,67.0,67.0,29.91,WSW,254,3.4,4.0,100,0.00,,,0.39,0.00,VWS V14.01,2013-09-12 11:11:00,
2013-09-12 07:14:00,67.2,67.2,29.90,WSW,254,4.7,4.7,100,0.00,,,0.39,0.00,VWS V14.01,2013-09-12 11:14:00,
2013-09-12 07:15:00,67.1,67.1,29.91,West,270,3.7,4.7,100,0.00,,,0.39,0.00,VWS V14.01,2013-09-12 11:15:00,
2013-09-12 07:16:00,67.2,67.2,29.91,West,266,3.7,3.9,100,0.00,,,0.39,0.00,VWS V14.01,2013-09-12 11:16:00,
2013-09-12 07:18:00,67.2,67.2,29.91,West,273,4.4,4.4,100,0.00,,,0.39,0.06,VWS V14.01,2013-09-12 11:18:00,
2013-09-12 07:19:00,67.2,67.2,29.90,West,269,4.2,5.7,100,0.00,,,0.39,0.06,VWS V14.01,2013-09-12 11:19:00,
2013-09-12 07:20:00,67.2,67.2,29.91,West,264,2.8,5.7,100,0.00,,,0.39,0.00,VWS V14.01,2013-09-12 11:20:00,
2013-09-12 07:21:00,67.2,67.3,29.91,West,265,3.5,3.5,100,0.00,,,0.39,0.49,VWS V14.01,2013-09-12 11:21:00,
2013-09-12 07:22:00,67.1,67.1,29.91,West,275,3.2,3.5,100,0.00,,,0.39,0.98,VWS V14.01,2013-09-12 11:22:00,
2013-09-12 07:25:00,67.3,67.3,29.90,West,262,5.6,5.6,100,0.00,,,0.39,2.26,VWS V14.01,2013-09-12 11:25:00,
2013-09-12 07:26:00,67.3,67.3,29.90,WSW,258,3.5,5.6,100,0.00,,,0.39,2.26,VWS V14.01,2013-09-12 11:26:00,
2013-09-12 07:27:00,67.3,67.3,29.90,WSW,245,5.4,5.4,100,0.00,,,0.39,2.26,VWS V14.01,2013-09-12 11:27:00,
2013-09-12 07:28:00,67.3,67.3,29.90,West,259,4.0,4.2,100,0.00,,,0.39,3.72,VWS V14.01,2013-09-12 11:28:00,
2013-09-12 07:30:00,67.3,67.3,29.91,West,275,3.4,4.5,100,0.00,,,0.39,4.70,VWS V14.01,2013-09-12 11:30:00,
2013-09-12 07:32:00,67.3,66.6,29.91,WSW,255,3.9,5.7,98,0.00,,,0.39,4.70,VWS V14.01,2013-09-12 11:32:00,
2013-09-12 07:34:00,67.3,67.3,29.90,West,261,4.2,4.4,100,0.00,,,0.39,6.84,VWS V14.01,2013-09-12 11:34:00,
2013-09-12 07:35:00,67.3,67.3,29.90,West,269,3.9,4.2,100,0.00,,,0.39,6.23,VWS V14.01,2013-09-12 11:35:00,
2013-09-12 07:37:00,67.2,67.2,29.90,West,275,3.5,4.4,100,0.00,,,0.39,7.14,VWS V14.01,2013-09-12 11:37:00,
2013-09-12 07:41:00,67.4,67.4,29.91,West,267,5.9,5.9,100,0.00,,,0.39,9.58,VWS V14.01,2013-09-12 11:41:00,
2013-09-12 07:42:00,67.4,67.4,29.90,West,276,4.2,5.9,100,0.00,,,0.39,10.01,VWS V14.01,2013-09-12 11:42:00,
2013-09-12 07:43:00,67.4,65.8,29.91,West,277,4.2,4.2,95,0.00,,,0.39,12.03,VWS V14.01,2013-09-12 11:43:00,
2013-09-12 07:45:00,67.2,67.2,29.91,West,279,2.5,3.5,100,0.00,,,0.39,12.88,VWS V14.01,2013-09-12 11:45:00,
2013-09-12 07:47:00,67.3,67.3,29.90,WNW,288,3.0,3.0,100,0.00,,,0.39,13.74,VWS V14.01,2013-09-12 11:47:00,
2013-09-12 07:48:00,67.3,67.3,29.90,WNW,288,3.0,3.0,100,0.00,,,0.39,13.74,VWS V14.01,2013-09-12 11:48:00,
2013-09-12 07:50:00,67.4,67.4,29.90,WNW,286,3.2,4.0,100,0.00,,,0.39,13.98,VWS V14.01,2013-09-12 11:50:00,
2013-09-12 07:52:00,67.4,67.4,29.93,West,266,3.9,3.9,100,0.00,,,0.39,13.98,VWS V14.01,2013-09-12 11:52:00,
2013-09-12 07:53:00,67.5,67.5,29.91,West,267,4.7,4.7,100,0.00,,,0.39,14.47,VWS V14.01,2013-09-12 11:53:00,
2013-09-12 07:54:00,67.5,67.5,29.91,West,278,3.5,3.5,100,0.00,,,0.39,14.47,VWS V14.01,2013-09-12 11:54:00,
2013-09-12 07:58:00,67.4,67.4,29.91,West,275,2.5,3.7,100,0.00,,,0.39,17.52,VWS V14.01,2013-09-12 11:58:00,
2013-09-12 07:59:00,67.4,66.5,29.90,West,275,3.9,3.9,97,0.00,,,0.39,14.47,VWS V14.01,2013-09-12 11:59:00,
2013-09-12 08:00:00,67.5,67.5,29.91,WNW,303,4.2,4.2,100,0.00,,,0.39,15.93,VWS V14.01,2013-09-12 12:00:00,
2013-09-12 08:02:00,67.5,67.5,29.90,West,281,3.9,3.9,100,0.00,,,0.39,17.09,VWS V14.01,2013-09-12 12:02:00,
2013-09-12 08:04:00,67.5,67.5,29.91,West,269,4.0,4.0,100,0.00,,,0.39,19.90,VWS V14.01,2013-09-12 12:04:00,
2013-09-12 08:05:00,67.5,67.5,29.91,West,281,1.1,3.4,100,0.00,,,0.39,21.55,VWS V14.01,2013-09-12 12:05:00,
2013-09-12 08:06:00,67.5,67.5,29.90,West,281,2.8,2.8,100,0.00,,,0.39,24.24,VWS V14.01,2013-09-12 12:06:00,
2013-09-12 08:07:00,67.5,67.6,29.90,West,281,3.0,3.0,100,0.00,,,0.39,24.73,VWS V14.01,2013-09-12 12:07:00,
2013-09-12 08:09:00,67.6,67.6,29.91,WNW,286,4.4,4.4,100,0.00,,,0.39,26.68,VWS V14.01,2013-09-12 12:09:00,
2013-09-12 08:10:00,67.5,67.5,29.90,WNW,296,2.8,2.8,100,0.00,,,0.39,26.92,VWS V14.01,2013-09-12 12:10:00,
2013-09-12 08:12:00,67.7,67.7,29.91,WNW,288,4.7,4.7,100,0.00,,,0.39,31.32,VWS V14.01,2013-09-12 12:12:00,
2013-09-12 08:15:00,67.6,67.6,29.90,WNW,298,2.2,3.5,100,0.00,,,0.39,32.78,VWS V14.01,2013-09-12 12:15:00,
2013-09-12 08:17:00,67.6,67.6,29.90,WNW,296,3.2,3.7,100,0.00,,,0.39,31.56,VWS V14.01,2013-09-12 12:17:00,
2013-09-12 08:19:00,67.6,67.6,29.90,WNW,284,3.2,3.9,100,0.00,,,0.39,29.85,VWS V14.01,2013-09-12 12:19:00,
2013-09-12 08:20:00,67.6,67.7,29.91,WNW,286,4.4,4.4,100,0.00,,,0.39,31.56,VWS V14.01,2013-09-12 12:20:00,
2013-09-12 08:23:00,67.7,67.7,29.90,West,280,2.7,3.4,100,0.00,,,0.39,31.56,VWS V14.01,2013-09-12 12:23:00,
2013-09-12 08:24:00,67.7,67.7,29.91,WNW,291,3.9,4.7,100,0.00,,,0.39,33.27,VWS V14.01,2013-09-12 12:24:00,
2013-09-12 08:25:00,67.8,67.8,29.91,WNW,298,3.9,3.9,100,0.00,,,0.39,34.00,VWS V14.01,2013-09-12 12:25:00,
2013-09-12 08:29:00,67.9,67.9,29.90,WNW,286,4.9,4.9,100,0.00,,,0.39,38.28,VWS V14.01,2013-09-12 12:29:00,
2013-09-12 08:30:00,67.9,67.9,29.89,WNW,302,5.2,5.2,100,0.00,,,0.39,38.64,VWS V14.01,2013-09-12 12:30:00,
2013-09-12 08:31:00,67.8,67.8,29.90,WNW,295,3.7,4.9,100,0.00,,,0.39,37.67,VWS V14.01,2013-09-12 12:31:00,
2013-09-12 08:32:00,67.9,67.9,29.90,WNW,295,4.7,4.9,100,0.00,,,0.39,38.89,VWS V14.01,2013-09-12 12:32:00,
2013-09-12 08:33:00,67.9,67.9,29.90,WNW,287,4.4,4.7,100,0.00,,,0.39,36.87,VWS V14.01,2013-09-12 12:33:00,
2013-09-12 08:34:00,67.9,67.9,29.90,WNW,292,3.7,4.4,100,0.00,,,0.39,38.89,VWS V14.01,2013-09-12 12:34:00,
2013-09-12 08:36:00,67.9,67.9,29.90,West,276,3.7,3.7,100,0.00,,,0.39,38.46,VWS V14.01,2013-09-12 12:36:00,
2013-09-12 08:37:00,67.9,67.9,29.90,WNW,297,3.9,3.9,100,0.00,,,0.39,41.33,VWS V14.01,2013-09-12 12:37:00,
2013-09-12 08:38:00,68.0,68.0,29.92,WNW,296,3.5,4.5,100,0.00,,,0.39,41.09,VWS V14.01,2013-09-12 12:38:00,
2013-09-12 08:40:00,68.0,68.0,29.90,WNW,289,4.4,4.5,100,0.00,,,0.39,38.89,VWS V14.01,2013-09-12 12:40:00,
2013-09-12 08:42:00,68.1,68.1,29.90,WNW,291,4.5,4.7,100,0.00,,,0.39,36.45,VWS V14.01,2013-09-12 12:42:00,
2013-09-12 08:43:00,68.1,68.1,29.90,WNW,287,4.0,4.5,100,0.00,,,0.39,36.94,VWS V14.01,2013-09-12 12:43:00,
2013-09-12 08:45:00,68.1,68.1,29.91,NW,307,4.4,4.7,100,0.00,,,0.39,38.89,VWS V14.01,2013-09-12 12:45:00,
2013-09-12 08:48:00,68.2,68.2,29.90,NW,304,4.9,4.9,100,0.00,,,0.39,35.84,VWS V14.01,2013-09-12 12:48:00,
2013-09-12 08:50:00,68.2,68.2,29.90,WNW,287,3.2,3.2,100,0.00,,,0.39,34.00,VWS V14.01,2013-09-12 12:50:00,
2013-09-12 08:52:00,68.5,68.5,29.90,WNW,294,4.4,4.4,100,0.00,,,0.39,33.94,VWS V14.01,2013-09-12 12:52:00,
2013-09-12 08:53:00,68.4,68.4,29.91,NW,304,5.9,5.9,100,0.00,,,0.39,34.62,VWS V14.01,2013-09-12 12:53:00,
2013-09-12 08:55:00,68.4,68.4,29.90,WNW,299,3.0,3.5,100,0.00,,,0.39,38.89,VWS V14.01,2013-09-12 12:55:00,
2013-09-12 08:58:00,68.4,68.4,29.90,WNW,285,2.8,3.9,100,0.00,,,0.39,41.94,VWS V14.01,2013-09-12 12:58:00,
2013-09-12 08:59:00,68.4,68.3,29.90,WNW,288,4.0,4.0,100,0.00,,,0.39,43.77,VWS V14.01,2013-09-12 12:59:00,
2013-09-12 09:00:00,68.6,68.4,29.91,West,274,3.7,4.0,100,0.00,,,0.39,43.71,VWS V14.01,2013-09-12 13:00:00,
2013-09-12 09:03:00,68.5,68.3,29.90,WNW,292,3.2,3.9,99,0.00,,,0.39,48.05,VWS V14.01,2013-09-12 13:03:00,
2013-09-12 09:04:00,68.6,68.4,29.89,WNW,288,4.4,4.4,99,0.00,,,0.39,46.70,VWS V14.01,2013-09-12 13:04:00,
2013-09-12 09:05:00,68.5,68.3,29.90,WNW,287,3.9,4.4,99,0.00,,,0.39,46.21,VWS V14.01,2013-09-12 13:05:00,
2013-09-12 09:07:00,68.7,68.4,29.90,WNW,283,4.7,4.7,99,0.00,,,0.39,50.24,VWS V14.01,2013-09-12 13:07:00,
2013-09-12 09:10:00,68.8,68.5,29.90,WNW,293,6.3,6.3,99,0.00,,,0.39,55.98,VWS V14.01,2013-09-12 13:10:00,
2013-09-12 09:12:00,68.8,68.5,29.90,WNW,293,3.9,3.9,99,0.00,,,0.39,58.42,VWS V14.01,2013-09-12 13:12:00,
2013-09-12 09:13:00,68.8,68.5,29.90,WNW,297,4.0,4.5,99,0.00,,,0.39,57.20,VWS V14.01,2013-09-12 13:13:00,
2013-09-12 09:16:00,68.9,68.5,29.89,NW,315,5.1,5.2,99,0.00,,,0.39,51.10,VWS V14.01,2013-09-12 13:16:00,
2013-09-12 09:17:00,68.9,68.5,29.90,NW,311,4.4,4.5,98,0.00,,,0.39,43.77,VWS V14.01,2013-09-12 13:17:00,
2013-09-12 09:19:00,69.0,68.5,29.90,WNW,292,4.5,4.5,98,0.00,,,0.39,46.21,VWS V14.01,2013-09-12 13:19:00,
2013-09-12 09:21:00,68.9,66.9,29.90,WNW,295,5.1,5.1,93,0.00,,,0.39,47.37,VWS V14.01,2013-09-12 13:21:00,
2013-09-12 09:22:00,69.0,68.5,29.90,NW,323,5.7,5.7,98,0.00,,,0.39,46.89,VWS V14.01,2013-09-12 13:22:00,
2013-09-12 09:24:00,69.1,68.5,29.90,NW,315,4.2,4.2,98,0.00,,,0.39,60.87,VWS V14.01,2013-09-12 13:24:00,
2013-09-12 09:25:00,69.1,68.5,29.90,NW,315,4.2,4.2,98,0.00,,,0.39,60.87,VWS V14.01,2013-09-12 13:25:00,
2013-09-12 09:26:00,69.1,68.5,29.90,WNW,301,4.4,4.4,98,0.00,,,0.39,55.25,VWS V14.01,2013-09-12 13:26:00,
2013-09-12 09:27:00,69.1,68.5,29.90,NW,304,5.7,5.7,98,0.00,,,0.39,46.52,VWS V14.01,2013-09-12 13:27:00,
2013-09-12 09:29:00,69.1,68.3,29.90,NW,324,6.3,6.9,97,0.00,,,0.39,40.66,VWS V14.01,2013-09-12 13:29:00,
2013-09-12 09:30:00,69.1,68.3,29.90,WNW,283,5.7,6.4,97,0.00,,,0.39,49.57,VWS V14.01,2013-09-12 13:30:00,
2013-09-12 09:32:00,69.1,68.2,29.90,WNW,299,3.2,6.9,97,0.00,,,0.39,78.57,VWS V14.01,2013-09-12 13:32:00,
2013-09-12 09:33:00,69.2,68.2,29.91,WNW,295,4.9,4.9,97,0.00,,,0.39,73.08,VWS V14.01,2013-09-12 13:33:00,
2013-09-12 09:35:00,69.3,68.1,29.91,WNW,296,5.6,6.9,96,0.00,,,0.39,65.02,VWS V14.01,2013-09-12 13:35:00,
2013-09-12 09:36:00,69.2,68.0,29.90,NW,310,4.4,5.6,96,0.00,,,0.39,52.20,VWS V14.01,2013-09-12 13:36:00,
2013-09-12 09:37:00,69.2,67.9,29.91,NW,307,7.1,7.1,96,0.00,,,0.39,53.54,VWS V14.01,2013-09-12 13:37:00,
2013-09-12 09:39:00,69.2,67.9,29.91,NW,321,5.9,7.1,96,0.00,,,0.39,53.30,VWS V14.01,2013-09-12 13:39:00,
2013-09-12 09:40:00,69.2,67.6,29.90,NW,310,4.9,8.1,95,0.00,,,0.39,53.54,VWS V14.01,2013-09-12 13:40:00,
2013-09-12 09:41:00,69.1,67.6,29.90,NW,310,4.0,8.1,95,0.00,,,0.39,53.24,VWS V14.01,2013-09-12 13:41:00,
2013-09-12 09:43:00,69.3,67.5,29.91,WNW,289,8.3,8.3,94,0.00,,,0.39,48.66,VWS V14.01,2013-09-12 13:43:00,
2013-09-12 09:46:00,69.2,67.6,29.90,NW,310,4.7,4.7,94,0.00,,,0.39,58.91,VWS V14.01,2013-09-12 13:46:00,
2013-09-12 09:47:00,69.2,67.5,29.91,NNW,331,5.2,5.2,94,0.00,,,0.39,61.48,VWS V14.01,2013-09-12 13:47:00,
2013-09-12 09:48:00,69.3,67.5,29.90,NW,316,5.9,7.3,94,0.00,,,0.39,68.93,VWS V14.01,2013-09-12 13:48:00,
2013-09-12 09:52:00,69.3,67.2,29.90,NW,321,6.8,6.8,93,0.00,,,0.39,71.98,VWS V14.01,2013-09-12 13:52:00,
2013-09-12 09:53:00,69.2,66.5,29.91,WNW,303,4.2,6.8,91,0.00,,,0.39,77.84,VWS V14.01,2013-09-12 13:53:00,
2013-09-12 09:54:00,69.3,67.2,29.91,WNW,297,6.8,6.8,93,0.00,,,0.39,81.87,VWS V14.01,2013-09-12 13:54:00,
2013-09-12 09:55:00,69.4,67.1,29.91,NW,313,7.8,7.8,93,0.00,,,0.39,87.73,VWS V14.01,2013-09-12 13:55:00,
2013-09-12 09:59:00,69.4,67.0,29.90,NW,309,7.6,7.6,92,0.00,,,0.39,92.61,VWS V14.01,2013-09-12 13:59:00,
2013-09-12 10:00:00,69.4,66.6,29.91,NNW,329,8.5,8.5,91,0.00,,,0.39,114.53,VWS V14.01,2013-09-12 14:00:00,
2013-09-12 10:03:00,69.4,66.7,29.91,NW,326,5.7,5.9,91,0.00,,,0.39,143.59,VWS V14.01,2013-09-12 14:03:00,
2013-09-12 10:04:00,69.7,66.9,29.91,NW,319,5.1,6.4,91,0.00,,,0.39,143.90,VWS V14.01,2013-09-12 14:04:00,
2013-09-12 10:05:00,69.4,66.3,29.91,WNW,302,6.8,6.8,90,0.00,,,0.39,144.87,VWS V14.01,2013-09-12 14:05:00,
2013-09-12 10:06:00,69.5,66.4,29.91,NW,305,6.3,6.8,90,0.00,,,0.39,146.34,VWS V14.01,2013-09-12 14:06:00,
2013-09-12 10:10:00,69.6,66.3,29.91,WNW,293,4.5,7.5,89,0.00,,,0.39,131.44,VWS V14.01,2013-09-12 14:10:00,
2013-09-12 10:11:00,69.6,66.2,29.90,NW,317,5.2,6.1,89,0.00,,,0.39,119.72,VWS V14.01,2013-09-12 14:11:00,
2013-09-12 10:13:00,69.4,65.7,29.91,NNW,335,6.4,6.6,88,0.00,,,0.39,106.17,VWS V14.01,2013-09-12 14:13:00,
2013-09-12 10:15:00,69.4,65.8,29.91,NW,305,8.7,8.7,88,0.00,,,0.39,90.42,VWS V14.01,2013-09-12 14:15:00,
2013-09-12 10:16:00,69.4,65.8,29.91,NNW,335,4.0,8.7,88,0.00,,,0.39,72.28,VWS V14.01,2013-09-12 14:16:00,
2013-09-12 10:17:00,69.4,65.8,29.91,NNW,335,4.0,4.0,88,0.00,,,0.39,72.28,VWS V14.01,2013-09-12 14:17:00,
2013-09-12 10:20:00,69.2,65.8,29.90,NW,311,5.2,5.2,89,0.00,,,0.39,60.87,VWS V14.01,2013-09-12 14:20:00,
2013-09-12 10:21:00,69.2,65.5,29.91,NW,305,4.9,5.2,88,0.00,,,0.39,86.02,VWS V14.01,2013-09-12 14:21:00,
2013-09-12 10:22:00,69.4,65.6,29.90,NW,306,6.8,6.8,88,0.00,,,0.39,107.26,VWS V14.01,2013-09-12 14:22:00,
2013-09-12 10:23:00,69.3,65.6,29.91,NNW,330,3.9,3.9,88,0.00,,,0.39,109.71,VWS V14.01,2013-09-12 14:23:00,
2013-09-12 10:25:00,69.4,64.8,29.91,NNW,337,6.4,6.9,85,0.00,,,0.39,122.04,VWS V14.01,2013-09-12 14:25:00,
2013-09-12 10:26:00,69.3,65.0,29.92,NW,315,3.0,6.4,86,0.00,,,0.39,126.86,VWS V14.01,2013-09-12 14:26:00,
2013-09-12 10:28:00,69.4,65.1,29.91,WNW,301,4.7,4.7,86,0.00,,,0.39,132.91,VWS V14.01,2013-09-12 14:28:00,
2013-09-12 10:29:00,69.5,64.9,29.90,NW,319,3.2,5.4,86,0.00,,,0.39,139.01,VWS V14.01,2013-09-12 14:29:00,
2013-09-12 10:30:00,69.5,65.1,29.91,NNW,342,5.4,5.4,86,0.00,,,0.39,139.01,VWS V14.01,2013-09-12 14:30:00,
2013-09-12 10:32:00,69.3,64.2,29.91,NW,319,7.5,8.0,84,0.00,,,0.39,146.34,VWS V14.01,2013-09-12 14:32:00,
2013-09-12 10:33:00,69.2,64.1,29.91,NW,312,5.9,5.9,84,0.00,,,0.39,146.34,VWS V14.01,2013-09-12 14:33:00,
2013-09-12 10:34:00,69.2,64.1,29.91,NW,312,5.9,5.9,84,0.00,,,0.39,146.34,VWS V14.01,2013-09-12 14:34:00,
2013-09-12 10:35:00,69.4,64.1,29.91,NW,317,5.2,5.2,83,0.00,,,0.39,143.65,VWS V14.01,2013-09-12 14:35:00,
2013-09-12 10:36:00,69.5,64.5,29.91,NNW,340,4.9,5.1,84,0.00,,,0.39,143.90,VWS V14.01,2013-09-12 14:36:00,
2013-09-12 10:37:00,69.4,64.0,29.91,NW,312,6.4,6.9,83,0.00,,,0.39,151.22,VWS V14.01,2013-09-12 14:37:00,
2013-09-12 10:39:00,69.4,64.4,29.91,NW,309,4.4,6.4,84,0.00,,,0.39,175.64,VWS V14.01,2013-09-12 14:39:00,
2013-09-12 10:40:00,69.4,64.4,29.91,NW,309,4.4,6.4,84,0.00,,,0.39,175.64,VWS V14.01,2013-09-12 14:40:00,
2013-09-12 10:42:00,69.4,64.1,29.92,NW,304,5.9,5.9,83,0.00,,,0.39,197.62,VWS V14.01,2013-09-12 14:42:00,
2013-09-12 10:45:00,69.8,64.1,29.91,NW,309,3.4,4.9,82,0.00,,,0.39,203.36,VWS V14.01,2013-09-12 14:45:00,
2013-09-12 10:46:00,69.9,62.5,29.91,NW,317,6.8,6.8,77,0.00,,,0.39,202.01,VWS V14.01,2013-09-12 14:46:00,
2013-09-12 10:48:00,69.6,63.3,29.91,NW,311,8.0,8.0,80,0.00,,,0.39,206.17,VWS V14.01,2013-09-12 14:48:00,
2013-09-12 10:50:00,69.7,63.5,29.91,NW,313,8.3,8.7,81,0.00,,,0.39,197.86,VWS V14.01,2013-09-12 14:50:00,
2013-09-12 10:51:00,69.8,63.4,29.91,NNW,340,6.1,6.8,80,0.00,,,0.39,190.54,VWS V14.01,2013-09-12 14:51:00,
2013-09-12 10:52:00,69.6,63.5,29.91,WNW,284,7.3,7.3,81,0.00,,,0.39,188.16,VWS V14.01,2013-09-12 14:52:00,
2013-09-12 10:53:00,69.7,63.5,29.91,NW,307,4.4,7.3,81,0.00,,,0.39,188.10,VWS V14.01,2013-09-12 14:53:00,
2013-09-12 10:55:00,69.6,63.0,29.91,NW,315,5.9,6.3,79,0.00,,,0.39,190.29,VWS V14.01,2013-09-12 14:55:00,
2013-09-12 10:56:00,69.6,62.7,29.90,NNW,328,5.9,7.6,79,0.00,,,0.39,204.64,VWS V14.01,2013-09-12 14:56:00,
2013-09-12 10:58:00,69.8,62.9,29.91,NNW,328,3.7,3.7,79,0.00,,,0.39,220.21,VWS V14.01,2013-09-12 14:58:00,
2013-09-12 11:00:00,69.9,61.7,29.91,NNW,339,4.9,9.5,75,0.00,,,0.39,216.42,VWS V14.01,2013-09-12 15:00:00,
2013-09-12 11:01:00,69.7,62.0,29.91,NW,310,6.4,6.4,77,0.00,,,0.39,214.96,VWS V14.01,2013-09-12 15:01:00,
2013-09-12 11:02:00,69.6,61.3,29.90,NW,306,9.0,9.0,75,0.00,,,0.39,206.17,VWS V14.01,2013-09-12 15:02:00,
2013-09-12 11:03:00,69.6,61.3,29.90,NW,306,9.0,9.0,75,0.00,,,0.39,206.17,VWS V14.01,2013-09-12 15:03:00,
2013-09-12 11:04:00,70.2,63.0,29.91,North,349,2.2,5.2,78,0.00,,,0.39,197.62,VWS V14.01,2013-09-12 15:04:00,
2013-09-12 11:06:00,69.9,61.4,29.91,NNW,338,3.4,4.0,74,0.00,,,0.39,200.73,VWS V14.01,2013-09-12 15:06:00,
2013-09-12 11:07:00,70.0,61.5,29.91,NNE,29,1.8,4.0,74,0.00,,,0.39,211.97,VWS V14.01,2013-09-12 15:07:00,
2013-09-12 11:08:00,70.0,61.3,29.91,NNW,347,3.7,6.3,74,0.00,,,0.39,220.27,VWS V14.01,2013-09-12 15:08:00,
2013-09-12 11:09:00,69.9,61.2,29.91,NW,307,3.2,7.3,74,0.00,,,0.39,230.10,VWS V14.01,2013-09-12 15:09:00,
2013-09-12 11:12:00,69.9,61.2,29.91,NNW,335,5.7,8.5,74,0.00,,,0.39,239.13,VWS V14.01,2013-09-12 15:12:00,
2013-09-12 11:13:00,69.9,60.8,29.91,NW,306,4.2,5.7,73,0.00,,,0.39,241.58,VWS V14.01,2013-09-12 15:13:00,
2013-09-12 11:14:00,70.1,61.3,29.91,NNW,327,4.0,4.9,74,0.00,,,0.39,244.02,VWS V14.01,2013-09-12 15:14:00,
2013-09-12 11:16:00,70.5,61.4,29.90,NW,312,1.6,2.5,73,0.00,,,0.39,258.67,VWS V14.01,2013-09-12 15:16:00,
2013-09-12 11:17:00,70.4,60.8,29.91,North,349,2.8,2.8,72,0.00,,,0.39,235.96,VWS V14.01,2013-09-12 15:17:00,
2013-09-12 11:18:00,70.4,60.8,29.91,North,349,2.8,2.8,72,0.00,,,0.39,235.96,VWS V14.01,2013-09-12 15:18:00,
2013-09-12 11:19:00,70.0,59.6,29.91,North,350,6.8,6.8,70,0.00,,,0.39,226.92,VWS V14.01,2013-09-12 15:19:00,
2013-09-12 11:22:00,69.7,58.9,29.90,NW,310,5.4,5.6,69,0.00,,,0.39,237.18,VWS V14.01,2013-09-12 15:22:00,
2013-09-12 11:23:00,69.6,58.6,29.90,WNW,289,4.9,5.4,68,0.00,,,0.39,244.02,VWS V14.01,2013-09-12 15:23:00,
2013-09-12 11:24:00,69.8,59.5,29.91,North,0,8.0,8.0,70,0.00,,,0.39,249.88,VWS V14.01,2013-09-12 15:24:00,
2013-09-12 11:27:00,70.0,60.1,29.91,NE,43,5.4,7.3,71,0.00,,,0.39,230.28,VWS V14.01,2013-09-12 15:27:00,
2013-09-12 11:29:00,70.2,60.2,29.91,NNW,337,3.2,4.4,70,0.00,,,0.39,231.50,VWS V14.01,2013-09-12 15:29:00,
2013-09-12 11:30:00,69.9,59.6,29.91,WNW,283,3.0,3.4,70,0.00,,,0.39,233.76,VWS V14.01,2013-09-12 15:30:00,
2013-09-12 11:31:00,69.8,59.0,29.91,NNW,330,5.6,5.9,68,0.00,,,0.39,234.43,VWS V14.01,2013-09-12 15:31:00,
2013-09-12 11:32:00,70.0,59.5,29.91,NW,314,4.5,5.6,69,0.00,,,0.39,238.22,VWS V14.01,2013-09-12 15:32:00,
2013-09-12 11:34:00,70.3,60.1,29.91,NNW,336,4.2,4.5,70,0.00,,,0.39,260.81,VWS V14.01,2013-09-12 15:34:00,
2013-09-12 11:35:00,70.3,60.1,29.91,NNW,336,4.2,4.5,70,0.00,,,0.39,260.81,VWS V14.01,2013-09-12 15:35:00,
2013-09-12 11:36:00,70.7,61.3,29.91,NNW,340,2.8,2.8,72,0.00,,,0.39,257.69,VWS V14.01,2013-09-12 15:36:00,
2013-09-12 11:39:00,70.0,57.5,29.91,NW,326,9.3,9.3,65,0.00,,,0.39,254.52,VWS V14.01,2013-09-12 15:39:00,
2013-09-12 11:40:00,70.2,58.8,29.91,NW,324,8.5,9.3,67,0.00,,,0.39,258.55,VWS V14.01,2013-09-12 15:40:00,
2013-09-12 11:41:00,70.2,58.0,29.91,NW,318,8.8,8.8,65,0.00,,,0.39,270.88,VWS V14.01,2013-09-12 15:41:00,
2013-09-12 11:42:00,70.4,57.8,29.92,North,349,6.1,8.8,64,0.00,,,0.39,273.57,VWS V14.01,2013-09-12 15:42:00,
2013-09-12 11:44:00,70.8,59.3,29.91,North,352,3.4,7.5,67,0.00,,,0.39,281.26,VWS V14.01,2013-09-12 15:44:00,
2013-09-12 11:45:00,70.6,58.3,29.91,NW,323,3.4,4.9,65,0.00,,,0.39,281.44,VWS V14.01,2013-09-12 15:45:00,
2013-09-12 11:46:00,70.7,58.2,29.91,NNW,339,5.6,5.6,65,0.00,,,0.39,287.97,VWS V14.01,2013-09-12 15:46:00,
2013-09-12 11:47:00,70.8,58.6,29.92,NNW,332,2.8,3.4,65,0.00,,,0.39,290.66,VWS V14.01,2013-09-12 15:47:00,
2013-09-12 11:48:00,70.6,59.4,29.91,WNW,301,4.4,5.6,68,0.00,,,0.39,295.30,VWS V14.01,2013-09-12 15:48:00,
2013-09-12 11:51:00,70.6,58.0,29.91,NW,321,6.6,6.6,64,0.00,,,0.39,275.03,VWS V14.01,2013-09-12 15:51:00,
2013-09-12 11:53:00,71.2,59.2,29.91,NNW,339,1.0,2.8,66,0.00,,,0.39,252.32,VWS V14.01,2013-09-12 15:53:00,
2013-09-12 11:54:00,70.6,55.4,29.91,NNW,330,7.8,7.8,59,0.00,,,0.39,270.64,VWS V14.01,2013-09-12 15:54:00,
2013-09-12 11:55:00,70.9,56.7,29.91,NW,322,4.4,7.8,61,0.00,,,0.39,286.14,VWS V14.01,2013-09-12 15:55:00,
2013-09-12 11:57:00,70.6,53.9,29.91,NE,36,3.5,8.1,55,0.00,,,0.39,300.92,VWS V14.01,2013-09-12 15:57:00,
2013-09-12 11:59:00,70.7,53.5,29.91,NNW,338,5.2,5.4,54,0.00,,,0.39,275.76,VWS V14.01,2013-09-12 15:59:00,
2013-09-12 12:00:00,70.8,54.3,29.91,North,1,3.9,5.2,56,0.00,,,0.39,295.60,VWS V14.01,2013-09-12 16:00:00,
2013-09-12 12:03:00,70.7,52.5,29.91,NW,310,6.3,7.6,52,0.00,,,0.39,331.93,VWS V14.01,2013-09-12 16:03:00,
2013-09-12 12:04:00,70.7,52.5,29.91,NW,310,6.3,7.6,52,0.00,,,0.39,331.93,VWS V14.01,2013-09-12 16:04:00,
2013-09-12 12:05:00,70.8,51.0,29.91,NNE,19,3.2,7.6,50,0.00,,,0.39,302.01,VWS V14.01,2013-09-12 16:05:00,
2013-09-12 12:06:00,70.9,52.1,29.91,NNW,330,2.7,7.6,51,0.00,,,0.39,297.74,VWS V14.01,2013-09-12 16:06:00,
2013-09-12 12:08:00,70.7,51.7,29.91,WNW,303,4.2,7.6,51,0.00,,,0.39,284.37,VWS V14.01,2013-09-12 16:08:00,
2013-09-12 12:11:00,70.5,49.9,29.91,North,351,5.9,8.3,48,0.00,,,0.39,280.16,VWS V14.01,2013-09-12 16:11:00,
2013-09-12 12:12:00,70.5,50.9,29.91,NNW,331,5.2,8.3,50,0.00,,,0.39,266.00,VWS V14.01,2013-09-12 16:12:00,
2013-09-12 12:13:00,70.6,51.3,29.91,NNW,330,9.5,9.5,50,0.00,,,0.39,258.12,VWS V14.01,2013-09-12 16:13:00,
2013-09-12 12:15:00,70.4,52.1,29.92,NW,314,5.7,9.5,52,0.00,,,0.39,255.01,VWS V14.01,2013-09-12 16:15:00,
2013-09-12 12:16:00,70.4,53.1,29.92,NNW,331,2.3,9.5,54,0.00,,,0.39,255.01,VWS V14.01,2013-09-12 16:16:00,
2013-09-12 12:17:00,70.5,52.8,29.92,NNW,338,5.4,9.5,54,0.00,,,0.39,256.23,VWS V14.01,2013-09-12 16:17:00,
2013-09-12 12:19:00,70.7,49.7,29.91,NNE,21,3.9,9.5,47,0.00,,,0.39,260.87,VWS V14.01,2013-09-12 16:19:00,
2013-09-12 12:20:00,70.8,51.8,29.91,North,11,2.2,9.5,51,0.00,,,0.39,260.32,VWS V14.01,2013-09-12 16:20:00,
2013-09-12 12:21:00,70.9,52.4,29.91,NE,43,3.5,9.5,52,0.00,,,0.39,260.38,VWS V14.01,2013-09-12 16:21:00,
2013-09-12 12:23:00,71.0,52.0,29.91,NNE,20,2.8,9.5,51,0.00,,,0.39,248.90,VWS V14.01,2013-09-12 16:23:00,
2013-09-12 12:24:00,70.9,53.3,29.92,NNE,13,4.4,9.5,54,0.00,,,0.39,246.21,VWS V14.01,2013-09-12 16:24:00,
2013-09-12 12:26:00,70.5,50.3,29.91,NW,319,5.4,9.5,49,0.00,,,0.39,254.64,VWS V14.01,2013-09-12 16:26:00,
2013-09-12 12:27:00,70.8,50.6,29.91,NNW,337,4.5,9.5,49,0.00,,,0.39,253.79,VWS V14.01,2013-09-12 16:27:00,
2013-09-12 12:28:00,70.3,52.4,29.91,NW,304,4.4,9.5,53,0.00,,,0.39,259.28,VWS V14.01,2013-09-12 16:28:00,
2013-09-12 12:29:00,70.8,52.9,29.91,North,1,4.9,9.5,53,0.00,,,0.39,319.72,VWS V14.01,2013-09-12 16:29:00,
2013-09-12 12:31:00,70.8,51.8,29.92,NNW,348,4.5,9.5,51,0.00,,,0.39,273.81,VWS V14.01,2013-09-12 16:31:00,
2013-09-12 12:32:00,71.2,51.5,29.91,NW,312,4.7,9.5,50,0.00,,,0.39,284.98,VWS V14.01,2013-09-12 16:32:00,
2013-09-12 12:34:00,71.1,49.8,29.92,NNW,332,4.2,9.5,47,0.00,,,0.39,266.30,VWS V14.01,2013-09-12 16:34:00,
2013-09-12 12:35:00,71.6,52.2,29.92,North,360,0.0,9.5,50,0.00,,,0.39,253.30,VWS V14.01,2013-09-12 16:35:00,
2013-09-12 12:37:00,71.2,50.3,29.92,NW,308,4.5,9.5,47,0.00,,,0.39,241.58,VWS V14.01,2013-09-12 16:37:00,
2013-09-12 12:39:00,71.5,51.1,29.91,NW,309,1.0,9.5,49,0.00,,,0.39,246.46,VWS V14.01,2013-09-12 16:39:00,
2013-09-12 12:40:00,71.3,49.5,29.92,North,6,4.0,9.5,46,0.00,,,0.39,240.23,VWS V14.01,2013-09-12 16:40:00,
2013-09-12 12:43:00,71.1,49.8,29.92,NW,307,3.7,9.5,47,0.00,,,0.39,302.63,VWS V14.01,2013-09-12 16:43:00,
2013-09-12 12:45:00,71.3,49.5,29.92,NNW,331,7.8,9.5,46,0.00,,,0.39,337.79,VWS V14.01,2013-09-12 16:45:00,
2013-09-12 12:46:00,72.1,50.9,29.92,NNE,31,6.3,9.5,47,0.00,,,0.39,552.56,VWS V14.01,2013-09-12 16:46:00,
2013-09-12 12:49:00,71.9,50.5,29.92,North,7,4.4,9.5,47,0.00,,,0.39,213.86,VWS V14.01,2013-09-12 16:49:00,
2013-09-12 12:50:00,71.2,51.2,29.92,West,279,3.0,9.5,49,0.00,,,0.39,174.11,VWS V14.01,2013-09-12 16:50:00,
2013-09-12 12:51:00,71.3,50.0,29.92,NW,307,5.9,9.5,47,0.00,,,0.39,168.32,VWS V14.01,2013-09-12 16:51:00,
2013-09-12 12:54:00,72.5,52.1,29.92,WNW,299,5.9,9.5,49,0.00,,,0.39,688.46,VWS V14.01,2013-09-12 16:54:00,
2013-09-12 12:55:00,72.5,50.2,29.91,NW,326,9.0,11.7,45,0.00,,,0.39,728.45,VWS V14.01,2013-09-12 16:55:00,
2013-09-12 12:56:00,73.1,51.9,29.91,NW,306,7.3,11.7,47,0.00,,,0.39,730.95,VWS V14.01,2013-09-12 16:56:00,
2013-09-12 12:59:00,74.1,45.7,29.90,WNW,302,8.5,11.7,36,0.00,,,0.39,708.00,VWS V14.01,2013-09-12 16:59:00,
2013-09-12 13:00:00,72.4,42.3,29.91,NW,309,10.7,11.7,34,0.00,,,0.39,707.69,VWS V14.01,2013-09-12 17:00:00,
2013-09-12 13:02:00,74.3,45.5,29.91,North,349,2.8,11.7,36,0.00,,,0.39,702.87,VWS V14.01,2013-09-12 17:02:00,
2013-09-12 13:05:00,73.4,44.6,29.91,NW,313,7.5,7.5,36,0.00,,,0.39,698.23,VWS V14.01,2013-09-12 17:05:00,
2013-09-12 13:06:00,73.7,44.5,29.90,NW,308,6.1,7.5,35,0.00,,,0.39,693.65,VWS V14.01,2013-09-12 17:06:00,
2013-09-12 13:07:00,73.4,41.5,29.90,NW,315,7.3,7.5,32,0.00,,,0.00,693.35,VWS V14.01,2013-09-12 17:07:00,
2013-09-12 13:08:00,73.5,43.3,29.91,NW,311,5.7,7.5,34,0.00,,,0.39,693.83,VWS V14.01,2013-09-12 17:08:00,
2013-09-12 13:10:00,73.2,44.3,29.90,WNW,296,6.3,7.5,35,0.00,,,0.39,690.90,VWS V14.01,2013-09-12 17:10:00,
2013-09-12 13:12:00,74.2,44.2,29.90,WNW,297,6.9,8.5,34,0.00,,,0.39,689.19,VWS V14.01,2013-09-12 17:12:00,
2013-09-12 13:13:00,74.4,45.9,29.90,NW,323,6.9,10.7,36,0.00,,,0.39,686.75,VWS V14.01,2013-09-12 17:13:00,
2013-09-12 13:14:00,73.5,39.9,29.90,NW,317,8.0,10.7,30,0.00,,,0.39,691.51,VWS V14.01,2013-09-12 17:14:00,
2013-09-12 13:15:00,73.5,39.9,29.90,NW,317,8.0,10.7,30,0.00,,,0.39,691.51,VWS V14.01,2013-09-12 17:15:00,
2013-09-12 13:19:00,75.3,39.9,29.90,NNW,340,3.7,10.7,28,0.00,,,0.39,686.02,VWS V14.01,2013-09-12 17:19:00,
2013-09-12 13:20:00,75.5,38.7,29.90,North,7,1.3,10.7,26,0.00,,,0.39,685.78,VWS V14.01,2013-09-12 17:20:00,
2013-09-12 13:21:00,74.4,40.2,29.90,NW,318,6.9,10.7,29,0.00,,,0.39,687.24,VWS V14.01,2013-09-12 17:21:00,
2013-09-12 13:23:00,75.4,41.3,29.90,NE,40,4.7,10.7,29,0.00,,,0.39,688.46,VWS V14.01,2013-09-12 17:23:00,
2013-09-12 13:25:00,74.9,39.0,29.90,NNW,327,6.4,10.7,27,0.00,,,0.39,688.77,VWS V14.01,2013-09-12 17:25:00,
2013-09-12 13:26:00,74.6,40.3,29.89,WNW,302,7.5,10.7,29,0.00,,,0.39,688.16,VWS V14.01,2013-09-12 17:26:00,
2013-09-12 13:28:00,74.1,40.0,29.89,WNW,303,8.5,10.7,29,0.00,,,0.39,686.33,VWS V14.01,2013-09-12 17:28:00,
2013-09-12 13:29:00,74.1,40.0,29.89,WNW,303,8.5,10.7,29,0.00,,,0.39,686.33,VWS V14.01,2013-09-12 17:29:00,
2013-09-12 13:30:00,74.3,39.8,29.89,NW,307,4.9,10.7,29,0.00,,,0.39,686.02,VWS V14.01,2013-09-12 17:30:00,
2013-09-12 13:31:00,74.8,42.2,29.89,WNW,296,4.9,10.7,31,0.00,,,0.39,688.16,VWS V14.01,2013-09-12 17:31:00,
2013-09-12 13:32:00,75.3,39.7,29.89,NW,309,4.0,10.7,28,0.00,,,0.39,686.02,VWS V14.01,2013-09-12 17:32:00,
2013-09-12 13:35:00,75.2,36.5,29.90,NW,306,6.9,10.7,25,0.00,,,0.39,576.50,VWS V14.01,2013-09-12 17:35:00,
2013-09-12 13:38:00,74.8,34.0,29.89,NE,45,4.9,10.7,22,0.00,,,0.39,686.02,VWS V14.01,2013-09-12 17:38:00,
2013-09-12 13:39:00,77.4,37.7,29.89,North,1,1.8,10.7,24,0.00,,,0.39,684.98,VWS V14.01,2013-09-12 17:39:00,
2013-09-12 13:41:00,76.1,37.6,29.89,NW,314,6.4,10.7,25,0.00,,,0.39,684.55,VWS V14.01,2013-09-12 17:41:00,
2013-09-12 13:43:00,74.7,36.5,29.88,WNW,300,7.3,10.7,25,0.00,,,0.39,684.07,VWS V14.01,2013-09-12 17:43:00,
2013-09-12 13:44:00,75.1,37.6,29.88,NW,309,5.1,10.7,26,0.00,,,0.39,684.07,VWS V14.01,2013-09-12 17:44:00,
2013-09-12 13:46:00,75.9,39.4,29.89,NW,320,3.9,10.7,27,0.00,,,0.39,682.36,VWS V14.01,2013-09-12 17:46:00,
2013-09-12 13:48:00,76.6,41.4,29.88,NW,320,4.4,10.7,28,0.00,,,0.39,681.38,VWS V14.01,2013-09-12 17:48:00,
2013-09-12 13:49:00,75.8,38.5,29.89,NNW,330,7.3,10.7,26,0.00,,,0.39,682.78,VWS V14.01,2013-09-12 17:49:00,
2013-09-12 13:50:00,75.7,37.4,29.89,NW,305,6.4,10.7,25,0.00,,,0.39,683.58,VWS V14.01,2013-09-12 17:50:00,
2013-09-12 13:51:00,75.7,37.8,29.88,NW,316,7.5,10.7,25,0.00,,,0.39,683.09,VWS V14.01,2013-09-12 17:51:00,
2013-09-12 13:54:00,75.6,41.9,29.90,WNW,293,8.0,10.7,30,0.00,,,0.39,681.14,VWS V14.01,2013-09-12 17:54:00,
2013-09-12 13:55:00,76.4,39.2,29.88,NE,41,5.2,10.7,26,0.00,,,0.39,682.60,VWS V14.01,2013-09-12 17:55:00,
2013-09-12 13:57:00,76.2,42.0,29.89,WNW,296,3.9,10.7,29,0.00,,,0.39,679.43,VWS V14.01,2013-09-12 17:57:00,
2013-09-12 13:59:00,76.7,42.5,29.88,NW,319,6.6,10.7,29,0.00,,,0.39,679.61,VWS V14.01,2013-09-12 17:59:00,
2013-09-12 14:01:00,77.9,40.6,29.88,NE,41,6.3,10.7,26,0.00,,,0.39,678.94,VWS V14.01,2013-09-12 18:01:00,
2013-09-12 14:02:00,77.8,40.0,29.88,NNW,345,3.5,10.7,26,0.00,,,0.39,679.43,VWS V14.01,2013-09-12 18:02:00,
2013-09-12 14:04:00,76.2,37.8,29.88,NW,307,5.6,8.1,25,0.00,,,0.39,677.84,VWS V14.01,2013-09-12 18:04:00,
2013-09-12 14:07:00,76.6,40.3,29.88,NW,314,5.6,5.6,27,0.00,,,0.39,676.74,VWS V14.01,2013-09-12 18:07:00,
2013-09-12 14:09:00,77.1,35.4,29.87,WNW,303,3.0,4.7,22,0.00,,,0.39,677.41,VWS V14.01,2013-09-12 18:09:00,
2013-09-12 14:10:00,77.9,36.8,29.88,NNE,25,1.6,2.8,23,0.00,,,0.39,676.50,VWS V14.01,2013-09-12 18:10:00,
2013-09-12 14:12:00,77.5,42.0,29.87,NW,305,3.5,3.5,28,0.00,,,0.39,674.05,VWS V14.01,2013-09-12 18:12:00,
2013-09-12 14:13:00,75.9,32.6,29.87,WNW,282,5.1,5.1,20,0.00,,,0.39,673.81,VWS V14.01,2013-09-12 18:13:00,
2013-09-12 14:16:00,77.7,36.1,29.87,NNW,334,3.5,3.5,22,0.00,,,0.39,673.81,VWS V14.01,2013-09-12 18:16:00,
2013-09-12 14:18:00,76.2,32.3,29.87,West,278,5.7,5.7,20,0.00,,,0.39,671.37,VWS V14.01,2013-09-12 18:18:00,
2013-09-12 14:19:00,76.4,36.3,29.88,West,269,4.2,5.7,23,0.00,,,0.39,671.37,VWS V14.01,2013-09-12 18:19:00,
2013-09-12 14:20:00,76.9,32.7,29.87,West,271,3.7,4.2,20,0.00,,,0.39,671.25,VWS V14.01,2013-09-12 18:20:00,
2013-09-12 14:22:00,77.1,35.8,29.86,West,277,1.0,3.5,22,0.00,,,0.39,668.68,VWS V14.01,2013-09-12 18:22:00,
2013-09-12 14:23:00,76.9,33.8,29.86,WSW,250,2.7,2.7,21,0.00,,,0.39,668.93,VWS V14.01,2013-09-12 18:23:00,
2013-09-12 14:24:00,78.2,35.6,29.87,NE,47,4.4,4.4,21,0.00,,,0.39,668.93,VWS V14.01,2013-09-12 18:24:00,
2013-09-12 14:28:00,77.2,30.5,29.87,North,11,4.4,4.7,18,0.00,,,0.39,669.17,VWS V14.01,2013-09-12 18:28:00,
2013-09-12 14:29:00,79.5,36.3,29.86,NE,41,0.0,3.5,21,0.00,,,0.39,671.37,VWS V14.01,2013-09-12 18:29:00,
2013-09-12 14:30:00,76.8,33.9,29.86,NW,304,9.3,9.3,21,0.00,,,0.39,668.93,VWS V14.01,2013-09-12 18:30:00,
2013-09-12 14:31:00,77.1,26.7,29.87,NNW,334,4.9,9.3,15,0.00,,,0.39,667.46,VWS V14.01,2013-09-12 18:31:00,
2013-09-12 14:33:00,76.9,35.5,29.86,WNW,299,5.2,6.6,22,0.00,,,0.39,666.48,VWS V14.01,2013-09-12 18:33:00,
2013-09-12 14:35:00,77.7,40.6,29.85,NW,307,5.1,5.1,26,0.00,,,0.39,666.79,VWS V14.01,2013-09-12 18:35:00,
2013-09-12 14:36:00,76.9,36.2,29.86,NW,317,6.3,10.2,23,0.00,,,0.39,665.75,VWS V14.01,2013-09-12 18:36:00,
2013-09-12 14:38:00,77.2,36.1,29.86,NW,322,6.4,6.4,23,0.00,,,0.39,661.36,VWS V14.01,2013-09-12 18:38:00,
2013-09-12 14:40:00,76.8,32.3,29.85,NW,306,8.1,8.1,20,0.00,,,0.39,661.60,VWS V14.01,2013-09-12 18:40:00,
2013-09-12 14:41:00,76.8,31.6,29.86,NW,311,12.4,12.4,19,0.00,,,0.39,660.87,VWS V14.01,2013-09-12 18:41:00,
2013-09-12 14:42:00,77.3,39.2,29.85,NW,318,6.4,6.4,25,0.00,,,0.39,659.16,VWS V14.01,2013-09-12 18:42:00,
2013-09-12 14:44:00,78.6,37.0,29.86,NNW,340,5.2,5.2,22,0.00,,,0.39,659.16,VWS V14.01,2013-09-12 18:44:00,
2013-09-12 14:46:00,79.3,35.0,29.86,NNW,345,2.7,5.6,20,0.00,,,0.39,655.01,VWS V14.01,2013-09-12 18:46:00,
2013-09-12 14:49:00,77.3,34.6,29.86,WNW,302,9.3,10.4,21,0.00,,,0.39,650.37,VWS V14.01,2013-09-12 18:49:00,
2013-09-12 14:50:00,77.7,33.9,29.85,NNW,332,6.9,9.3,20,0.00,,,0.39,648.05,VWS V14.01,2013-09-12 18:50:00,
2013-09-12 14:51:00,77.3,32.7,29.85,West,281,6.1,8.3,20,0.00,,,0.39,649.39,VWS V14.01,2013-09-12 18:51:00,
2013-09-12 14:52:00,77.8,35.8,29.85,NW,307,5.7,6.1,22,0.00,,,0.39,647.92,VWS V14.01,2013-09-12 18:52:00,
2013-09-12 14:54:00,77.5,31.0,29.85,WNW,293,6.8,11.1,18,0.00,,,0.39,645.97,VWS V14.01,2013-09-12 18:54:00,
2013-09-12 14:55:00,78.1,32.6,29.85,NW,321,6.1,6.8,19,0.00,,,0.39,644.75,VWS V14.01,2013-09-12 18:55:00,
2013-09-12 14:57:00,78.5,34.6,29.85,WNW,300,2.5,4.4,20,0.00,,,0.39,642.31,VWS V14.01,2013-09-12 18:57:00,
2013-09-12 14:59:00,77.5,36.4,29.85,NW,321,8.7,10.2,23,0.00,,,0.39,639.62,VWS V14.01,2013-09-12 18:59:00,
2013-09-12 15:01:00,78.0,32.2,29.85,NW,320,8.3,10.2,19,0.00,,,0.39,639.62,VWS V14.01,2013-09-12 19:01:00,
2013-09-12 15:02:00,77.8,34.1,29.86,NW,311,7.5,8.3,20,0.00,,,0.39,637.18,VWS V14.01,2013-09-12 19:02:00,
2013-09-12 15:03:00,79.0,39.8,29.86,NNW,339,5.4,7.5,25,0.00,,,0.39,636.94,VWS V14.01,2013-09-12 19:03:00,
2013-09-12 15:07:00,78.1,30.4,29.85,West,271,5.4,7.5,17,0.00,,,0.39,627.41,VWS V14.01,2013-09-12 19:07:00,
2013-09-12 15:08:00,77.7,28.0,29.85,NE,47,5.1,7.5,16,0.00,,,0.39,624.97,VWS V14.01,2013-09-12 19:08:00,
2013-09-12 15:11:00,77.2,27.6,29.85,NW,306,8.3,8.8,16,0.00,,,0.39,624.73,VWS V14.01,2013-09-12 19:11:00,
2013-09-12 15:13:00,77.6,30.7,29.85,NW,321,5.7,8.8,18,0.00,,,0.39,623.14,VWS V14.01,2013-09-12 19:13:00,
2013-09-12 15:15:00,79.2,29.6,29.84,West,268,2.8,8.8,16,0.00,,,0.39,616.42,VWS V14.01,2013-09-12 19:15:00,
2013-09-12 15:16:00,78.5,35.9,29.85,NW,326,5.1,8.8,21,0.00,,,0.39,616.61,VWS V14.01,2013-09-12 19:16:00,
2013-09-12 15:17:00,79.1,34.2,29.85,WNW,291,2.5,8.8,20,0.00,,,0.39,616.91,VWS V14.01,2013-09-12 19:17:00,
2013-09-12 15:19:00,78.5,30.3,29.84,ENE,57,6.3,8.8,17,0.00,,,0.39,615.51,VWS V14.01,2013-09-12 19:19:00,
2013-09-12 15:20:00,78.7,34.6,29.85,West,265,2.2,8.8,20,0.00,,,0.39,615.20,VWS V14.01,2013-09-12 19:20:00,
2013-09-12 15:23:00,79.4,34.6,29.85,North,3,3.4,8.8,20,0.00,,,0.39,610.32,VWS V14.01,2013-09-12 19:23:00,
2013-09-12 15:24:00,79.4,32.6,29.85,NE,46,1.3,8.8,18,0.00,,,0.39,608.85,VWS V14.01,2013-09-12 19:24:00,
2013-09-12 15:25:00,78.7,29.8,29.85,North,11,4.0,8.8,17,0.00,,,0.39,605.43,VWS V14.01,2013-09-12 19:25:00,
2013-09-12 15:29:00,77.2,31.0,29.84,WNW,303,6.3,9.5,18,0.00,,,0.39,600.49,VWS V14.01,2013-09-12 19:29:00,
2013-09-12 15:30:00,77.1,32.2,29.84,WNW,284,8.5,9.5,19,0.00,,,0.39,597.80,VWS V14.01,2013-09-12 19:30:00,
2013-09-12 15:31:00,77.1,32.2,29.84,WNW,284,8.5,9.5,19,0.00,,,0.39,597.80,VWS V14.01,2013-09-12 19:31:00,
2013-09-12 15:34:00,78.0,33.6,29.84,WNW,301,6.9,9.5,20,0.00,,,0.39,593.22,VWS V14.01,2013-09-12 19:34:00,
2013-09-12 15:35:00,78.8,30.7,29.84,NNE,23,5.1,9.5,17,0.00,,,0.39,590.54,VWS V14.01,2013-09-12 19:35:00,
2013-09-12 15:36:00,78.6,29.7,29.84,NW,324,4.9,9.5,17,0.00,,,0.39,588.83,VWS V14.01,2013-09-12 19:36:00,
2013-09-12 15:37:00,77.5,27.5,29.84,WNW,294,7.3,9.5,16,0.00,,,0.39,588.34,VWS V14.01,2013-09-12 19:37:00,
2013-09-12 15:40:00,77.3,33.6,29.84,WNW,290,6.9,9.5,20,0.00,,,0.39,590.60,VWS V14.01,2013-09-12 19:40:00,
2013-09-12 15:41:00,77.4,36.9,29.84,West,270,5.1,9.5,23,0.00,,,0.39,589.56,VWS V14.01,2013-09-12 19:41:00,
2013-09-12 15:42:00,77.8,37.5,29.84,NW,315,6.6,9.5,23,0.00,,,0.39,593.47,VWS V14.01,2013-09-12 19:42:00,
2013-09-12 15:45:00,78.9,32.3,29.85,North,349,3.2,9.5,18,0.00,,,0.39,576.44,VWS V14.01,2013-09-12 19:45:00,
2013-09-12 15:46:00,78.3,32.3,29.85,WSW,257,9.5,9.5,19,0.00,,,0.39,577.23,VWS V14.01,2013-09-12 19:46:00,
2013-09-12 15:47:00,79.6,38.3,29.84,NW,311,3.0,9.5,23,0.00,,,0.39,576.13,VWS V14.01,2013-09-12 19:47:00,
2013-09-12 15:48:00,78.6,32.0,29.84,NE,50,2.0,9.5,18,0.00,,,0.39,578.57,VWS V14.01,2013-09-12 19:48:00,
2013-09-12 15:49:00,78.9,32.2,29.84,NW,311,2.8,9.5,18,0.00,,,0.39,580.16,VWS V14.01,2013-09-12 19:49:00,
2013-09-12 15:50:00,77.9,34.0,29.85,West,281,4.2,9.5,20,0.00,,,0.39,593.90,VWS V14.01,2013-09-12 19:50:00,
2013-09-12 15:52:00,78.0,33.8,29.84,WNW,303,1.8,9.5,20,0.00,,,0.39,159.52,VWS V14.01,2013-09-12 19:52:00,
2013-09-12 15:53:00,78.8,34.8,29.84,West,262,1.5,9.5,20,0.00,,,0.39,170.45,VWS V14.01,2013-09-12 19:53:00,
2013-09-12 15:54:00,77.5,31.7,29.84,NE,40,3.5,9.5,19,0.00,,,0.39,155.86,VWS V14.01,2013-09-12 19:54:00,
2013-09-12 15:55:00,77.5,31.7,29.84,NE,40,3.5,9.5,19,0.00,,,0.39,155.86,VWS V14.01,2013-09-12 19:55:00,
2013-09-12 15:57:00,77.4,32.5,29.84,North,5,5.9,9.5,19,0.00,,,0.39,196.64,VWS V14.01,2013-09-12 19:57:00,
2013-09-12 15:59:00,76.8,33.4,29.84,NW,315,2.8,9.5,20,0.00,,,0.39,176.86,VWS V14.01,2013-09-12 19:59:00,
2013-09-12 16:00:00,76.9,30.0,29.84,NW,324,9.0,9.5,18,0.00,,,0.39,573.69,VWS V14.01,2013-09-12 20:00:00,
2013-09-12 16:01:00,77.1,30.1,29.84,NNW,340,4.9,9.5,18,0.00,,,0.39,300.79,VWS V14.01,2013-09-12 20:01:00,
2013-09-12 16:04:00,77.2,32.6,29.83,NW,315,7.1,7.1,20,0.00,,,0.39,665.02,VWS V14.01,2013-09-12 20:04:00,
2013-09-12 16:05:00,77.6,31.9,29.84,NW,326,6.8,8.0,19,0.00,,,0.39,389.80,VWS V14.01,2013-09-12 20:05:00,
2013-09-12 16:06:00,78.0,35.3,29.84,WNW,301,2.7,8.0,21,0.00,,,0.39,691.21,VWS V14.01,2013-09-12 20:06:00,
2013-09-12 16:08:00,79.5,36.5,29.84,NW,324,3.9,8.0,21,0.00,,,0.39,704.82,VWS V14.01,2013-09-12 20:08:00,
2013-09-12 16:09:00,79.0,35.4,29.84,NNW,335,3.7,8.0,21,0.00,,,0.39,703.11,VWS V14.01,2013-09-12 20:09:00,
2013-09-12 16:11:00,78.6,34.1,29.84,NNW,329,7.6,8.0,20,0.00,,,0.39,676.25,VWS V14.01,2013-09-12 20:11:00,
2013-09-12 16:12:00,79.4,31.2,29.84,NNE,17,3.7,8.0,17,0.00,,,0.39,666.48,VWS V14.01,2013-09-12 20:12:00,
2013-09-12 16:13:00,78.1,31.8,29.84,North,1,5.6,8.0,18,0.00,,,0.39,341.70,VWS V14.01,2013-09-12 20:13:00,
2013-09-12 16:15:00,77.7,32.5,29.84,NNW,346,5.7,8.0,19,0.00,,,0.39,253.30,VWS V14.01,2013-09-12 20:15:00,
2013-09-12 16:17:00,78.7,35.3,29.83,North,4,3.9,8.1,21,0.00,,,0.39,660.62,VWS V14.01,2013-09-12 20:17:00,
2013-09-12 16:18:00,76.5,31.1,29.84,NW,305,8.8,8.8,19,0.00,,,0.39,278.21,VWS V14.01,2013-09-12 20:18:00,
2013-09-12 16:19:00,76.9,33.2,29.84,North,11,8.0,8.8,20,0.00,,,0.39,292.86,VWS V14.01,2013-09-12 20:19:00,
2013-09-12 16:20:00,75.9,34.5,29.84,NNW,342,13.3,13.3,22,0.00,,,0.39,260.81,VWS V14.01,2013-09-12 20:20:00,
2013-09-12 16:23:00,77.9,36.5,29.83,NW,322,3.0,13.3,22,0.00,,,0.39,617.16,VWS V14.01,2013-09-12 20:23:00,
2013-09-12 16:24:00,76.8,33.0,29.84,ENE,58,4.2,13.3,20,0.00,,,0.39,148.05,VWS V14.01,2013-09-12 20:24:00,
2013-09-12 16:26:00,76.3,29.2,29.83,NNE,14,6.4,13.3,18,0.00,,,0.39,135.59,VWS V14.01,2013-09-12 20:26:00,
2013-09-12 16:27:00,77.1,35.8,29.83,North,351,7.5,13.3,22,0.00,,,0.39,561.23,VWS V14.01,2013-09-12 20:27:00,
2013-09-12 16:28:00,76.5,34.3,29.84,NNW,348,7.1,13.3,21,0.00,,,0.39,163.68,VWS V14.01,2013-09-12 20:28:00,
2013-09-12 16:31:00,76.2,34.9,29.84,NNW,342,3.7,13.3,22,0.00,,,0.39,169.11,VWS V14.01,2013-09-12 20:31:00,
2013-09-12 16:32:00,76.0,34.0,29.83,North,0,6.1,13.3,22,0.00,,,0.39,178.08,VWS V14.01,2013-09-12 20:32:00,
2013-09-12 16:33:00,76.0,35.5,29.83,WNW,288,1.5,13.3,23,0.00,,,0.39,178.82,VWS V14.01,2013-09-12 20:33:00,
2013-09-12 16:35:00,75.9,35.0,29.83,North,7,5.1,13.3,23,0.00,,,0.39,175.40,VWS V14.01,2013-09-12 20:35:00,
2013-09-12 16:36:00,75.9,36.6,29.84,North,8,8.0,13.3,24,0.00,,,0.39,158.79,VWS V14.01,2013-09-12 20:36:00,
2013-09-12 16:37:00,75.6,35.7,29.83,North,6,7.1,13.3,23,0.00,,,0.39,154.15,VWS V14.01,2013-09-12 20:37:00,
2013-09-12 16:38:00,75.5,34.8,29.83,East,85,5.4,13.3,23,0.00,,,0.39,156.35,VWS V14.01,2013-09-12 20:38:00,
2013-09-12 16:41:00,75.0,37.0,29.83,NNE,32,4.0,13.3,25,0.00,,,0.39,165.81,VWS V14.01,2013-09-12 20:41:00,
2013-09-12 16:42:00,75.2,36.8,29.83,ENE,74,1.6,13.3,25,0.00,,,0.39,163.43,VWS V14.01,2013-09-12 20:42:00,
2013-09-12 16:44:00,74.4,37.4,29.83,East,87,1.5,13.3,26,0.00,,,0.39,163.43,VWS V14.01,2013-09-12 20:44:00,
2013-09-12 16:46:00,77.4,41.3,29.83,NNE,16,3.7,13.3,27,0.00,,,0.39,568.32,VWS V14.01,2013-09-12 20:46:00,
2013-09-12 16:47:00,77.3,38.3,29.82,NE,37,3.0,13.3,25,0.00,,,0.39,561.48,VWS V14.01,2013-09-12 20:47:00,
2013-09-12 16:48:00,77.5,38.1,29.82,NNW,338,3.4,13.3,24,0.00,,,0.39,549.63,VWS V14.01,2013-09-12 20:48:00,
2013-09-12 16:49:00,77.7,37.3,29.83,NNE,28,4.9,13.3,23,0.00,,,0.39,503.48,VWS V14.01,2013-09-12 20:49:00,
2013-09-12 16:50:00,77.7,36.4,29.82,NE,43,3.0,13.3,22,0.00,,,0.39,480.89,VWS V14.01,2013-09-12 20:50:00,
2013-09-12 16:52:00,77.3,35.5,29.82,NNW,332,5.1,13.3,22,0.00,,,0.39,451.59,VWS V14.01,2013-09-12 20:52:00,
2013-09-12 16:54:00,76.7,36.0,29.83,NE,47,3.0,13.3,23,0.00,,,0.39,438.64,VWS V14.01,2013-09-12 20:54:00,
2013-09-12 16:55:00,77.8,39.8,29.82,North,8,1.0,13.3,26,0.00,,,0.39,432.05,VWS V14.01,2013-09-12 20:55:00,
2013-09-12 16:56:00,78.0,36.3,29.82,North,350,2.3,13.3,22,0.00,,,0.39,424.36,VWS V14.01,2013-09-12 20:56:00,
2013-09-12 16:59:00,76.8,33.2,29.82,NW,312,4.4,13.3,20,0.00,,,0.39,421.98,VWS V14.01,2013-09-12 20:59:00,
2013-09-12 17:00:00,77.2,36.3,29.83,NE,35,5.9,13.3,23,0.00,,,0.39,414.16,VWS V14.01,2013-09-12 21:00:00,
2013-09-12 17:01:00,78.2,36.4,29.82,North,350,1.8,13.3,22,0.00,,,0.39,414.96,VWS V14.01,2013-09-12 21:01:00,
2013-09-12 17:03:00,77.7,36.7,29.82,NNW,339,1.3,3.5,23,0.00,,,0.39,408.12,VWS V14.01,2013-09-12 21:03:00,
2013-09-12 17:04:00,77.1,35.5,29.82,North,350,6.3,6.3,22,0.00,,,0.39,412.52,VWS V14.01,2013-09-12 21:04:00,
2013-09-12 17:06:00,77.0,36.2,29.82,SE,132,1.6,3.2,23,0.00,,,0.39,403.97,VWS V14.01,2013-09-12 21:06:00,
2013-09-12 17:07:00,77.0,33.1,29.82,NNW,329,5.1,5.1,20,0.00,,,0.39,381.01,VWS V14.01,2013-09-12 21:07:00,
2013-09-12 17:08:00,76.0,33.8,29.82,NE,51,4.9,5.1,21,0.00,,,0.39,172.95,VWS V14.01,2013-09-12 21:08:00,
2013-09-12 17:09:00,75.6,34.7,29.82,NNE,21,4.5,5.1,22,0.00,,,0.39,160.99,VWS V14.01,2013-09-12 21:09:00,
2013-09-12 17:10:00,75.6,34.7,29.82,NNE,21,4.5,5.1,22,0.00,,,0.39,160.99,VWS V14.01,2013-09-12 21:10:00,
2013-09-12 17:12:00,76.6,35.8,29.81,NNE,27,2.7,3.9,23,0.00,,,0.39,484.80,VWS V14.01,2013-09-12 21:12:00,
2013-09-12 17:13:00,76.2,33.5,29.81,NNE,32,4.2,5.7,21,0.00,,,0.39,481.38,VWS V14.01,2013-09-12 21:13:00,
2013-09-12 17:14:00,76.9,35.0,29.81,NNW,337,5.9,5.9,22,0.00,,,0.39,473.81,VWS V14.01,2013-09-12 21:14:00,
2013-09-12 17:17:00,76.9,34.4,29.81,NNE,16,2.7,2.7,21,0.00,,,0.39,399.33,VWS V14.01,2013-09-12 21:17:00,
2013-09-12 17:18:00,76.6,34.6,29.82,NE,39,4.5,4.5,22,0.00,,,0.39,390.78,VWS V14.01,2013-09-12 21:18:00,
2013-09-12 17:19:00,76.8,35.4,29.81,NNE,28,5.6,5.6,22,0.00,,,0.39,376.37,VWS V14.01,2013-09-12 21:19:00,
2013-09-12 17:22:00,76.7,35.9,29.82,NE,37,2.5,2.5,23,0.00,,,0.39,356.35,VWS V14.01,2013-09-12 21:22:00,
2013-09-12 17:23:00,77.2,38.2,29.82,NNE,23,3.5,3.5,24,0.00,,,0.39,356.59,VWS V14.01,2013-09-12 21:23:00,
2013-09-12 17:24:00,76.2,33.3,29.81,NNE,25,7.1,7.1,21,0.00,,,0.39,353.17,VWS V14.01,2013-09-12 21:24:00,
2013-09-12 17:26:00,76.1,35.9,29.82,NE,35,3.0,3.0,23,0.00,,,0.39,344.14,VWS V14.01,2013-09-12 21:26:00,
2013-09-12 17:27:00,75.7,38.4,29.82,NW,311,4.0,4.0,26,0.00,,,0.39,338.03,VWS V14.01,2013-09-12 21:27:00,
2013-09-12 17:28:00,75.7,38.4,29.82,NW,311,4.0,4.0,26,0.00,,,0.39,338.03,VWS V14.01,2013-09-12 21:28:00,
2013-09-12 17:29:00,77.0,38.2,29.82,North,10,3.4,4.0,25,0.00,,,0.39,339.01,VWS V14.01,2013-09-12 21:29:00,
2013-09-12 17:31:00,76.7,36.4,29.82,NE,41,3.4,3.4,23,0.00,,,0.39,334.07,VWS V14.01,2013-09-12 21:31:00,
2013-09-12 17:32:00,76.3,39.5,29.82,North,3,4.0,4.0,27,0.00,,,0.39,336.81,VWS V14.01,2013-09-12 21:32:00,
2013-09-12 17:34:00,76.3,36.2,29.81,NNE,15,3.4,3.9,23,0.00,,,0.39,341.70,VWS V14.01,2013-09-12 21:34:00,
2013-09-12 17:35:00,76.8,36.6,29.81,WNW,288,3.7,3.7,23,0.00,,,0.39,344.14,VWS V14.01,2013-09-12 21:35:00,
2013-09-12 17:37:00,77.0,36.1,29.82,West,272,4.5,4.5,23,0.00,,,0.39,348.78,VWS V14.01,2013-09-12 21:37:00,
2013-09-12 17:38:00,77.5,38.6,29.81,NNE,30,2.8,4.5,25,0.00,,,0.39,352.38,VWS V14.01,2013-09-12 21:38:00,
2013-09-12 17:39:00,76.4,38.1,29.81,WNW,291,2.5,3.9,25,0.00,,,0.39,350.98,VWS V14.01,2013-09-12 21:39:00,
2013-09-12 17:40:00,76.5,39.3,29.81,NNE,33,3.2,3.9,26,0.00,,,0.39,346.58,VWS V14.01,2013-09-12 21:40:00,
2013-09-12 17:41:00,76.2,38.1,29.81,NNW,335,5.1,5.1,25,0.00,,,0.39,341.39,VWS V14.01,2013-09-12 21:41:00,
2013-09-12 17:43:00,76.7,37.8,29.81,NE,47,2.2,5.1,25,0.00,,,0.39,320.45,VWS V14.01,2013-09-12 21:43:00,
2013-09-12 17:44:00,76.2,37.8,29.82,NW,323,3.0,3.0,25,0.00,,,0.39,315.81,VWS V14.01,2013-09-12 21:44:00,
2013-09-12 17:45:00,76.3,35.6,29.81,North,351,7.3,7.3,23,0.00,,,0.39,308.61,VWS V14.01,2013-09-12 21:45:00,
2013-09-12 17:46:00,77.1,36.8,29.81,NE,35,3.4,4.2,23,0.00,,,0.39,305.56,VWS V14.01,2013-09-12 21:46:00,
2013-09-12 17:47:00,77.1,36.8,29.81,NE,35,3.4,3.4,23,0.00,,,0.39,305.56,VWS V14.01,2013-09-12 21:47:00,
2013-09-12 17:48:00,76.6,36.3,29.81,NNE,26,4.4,4.4,23,0.00,,,0.39,305.07,VWS V14.01,2013-09-12 21:48:00,
2013-09-12 17:50:00,75.7,34.6,29.81,NE,41,5.2,5.2,22,0.00,,,0.39,297.74,VWS V14.01,2013-09-12 21:50:00,
2013-09-12 17:51:00,75.7,37.6,29.80,ENE,66,4.4,5.2,25,0.00,,,0.39,287.97,VWS V14.01,2013-09-12 21:51:00,
2013-09-12 17:52:00,75.7,37.6,29.80,ENE,66,4.4,5.2,25,0.00,,,0.39,287.97,VWS V14.01,2013-09-12 21:52:00,
2013-09-12 17:53:00,75.7,37.4,29.80,NE,35,5.2,5.2,25,0.00,,,0.39,283.82,VWS V14.01,2013-09-12 21:53:00,
2013-09-12 17:55:00,76.4,37.8,29.79,North,10,3.0,5.7,25,0.00,,,0.39,258.97,VWS V14.01,2013-09-12 21:55:00,
2013-09-12 17:56:00,76.0,39.2,29.80,WSW,245,2.3,4.2,27,0.00,,,0.39,258.36,VWS V14.01,2013-09-12 21:56:00,
2013-09-12 17:57:00,75.7,37.6,29.80,NNW,345,2.5,2.5,25,0.00,,,0.39,258.67,VWS V14.01,2013-09-12 21:57:00,
2013-09-12 17:59:00,76.1,37.9,29.81,NE,36,2.5,3.2,25,0.00,,,0.39,254.27,VWS V14.01,2013-09-12 21:59:00,
2013-09-12 18:00:00,75.6,37.5,29.81,NNE,24,3.7,3.7,25,0.00,,,0.39,256.04,VWS V14.01,2013-09-12 22:00:00,
2013-09-12 18:02:00,75.4,38.4,29.81,North,0,3.9,6.3,26,0.00,,,0.39,256.17,VWS V14.01,2013-09-12 22:02:00,
2013-09-12 18:03:00,75.2,37.2,29.81,NNW,336,1.3,6.8,25,0.00,,,0.39,100.00,VWS V14.01,2013-09-12 22:03:00,
2013-09-12 18:04:00,74.6,37.9,29.81,North,10,3.7,6.8,26,0.00,,,0.39,101.83,VWS V14.01,2013-09-12 22:04:00,
2013-09-12 18:05:00,74.6,37.9,29.81,North,10,3.7,6.8,26,0.00,,,0.39,101.83,VWS V14.01,2013-09-12 22:05:00,
2013-09-12 18:06:00,74.2,37.8,29.81,NNW,330,0.0,6.8,27,0.00,,,0.39,92.61,VWS V14.01,2013-09-12 22:06:00,
2013-09-12 18:08:00,74.0,37.8,29.81,NE,47,2.8,6.8,27,0.00,,,0.39,82.97,VWS V14.01,2013-09-12 22:08:00,
2013-09-12 18:09:00,74.1,36.9,29.81,NE,49,5.4,6.8,26,0.00,,,0.39,76.13,VWS V14.01,2013-09-12 22:09:00,
2013-09-12 18:10:00,73.7,38.1,29.82,WNW,291,3.7,6.8,27,0.00,,,0.39,68.74,VWS V14.01,2013-09-12 22:10:00,
2013-09-12 18:13:00,73.7,38.5,29.81,NNE,18,2.5,6.8,28,0.00,,,0.39,49.27,VWS V14.01,2013-09-12 22:13:00,
2013-09-12 18:14:00,73.6,37.3,29.81,North,7,3.0,6.8,27,0.00,,,0.39,42.80,VWS V14.01,2013-09-12 22:14:00,
2013-09-12 18:15:00,73.4,37.8,29.81,North,10,4.0,6.8,27,0.00,,,0.39,38.64,VWS V14.01,2013-09-12 22:15:00,
2013-09-12 18:16:00,73.1,37.9,29.82,SW,236,0.0,6.8,28,0.00,,,0.39,29.12,VWS V14.01,2013-09-12 22:16:00,
2013-09-12 18:17:00,72.8,37.9,29.82,NW,304,1.5,6.8,28,0.00,,,0.39,27.53,VWS V14.01,2013-09-12 22:17:00,
2013-09-12 18:20:00,73.1,38.2,29.82,North,3,2.0,6.8,28,0.00,,,0.39,19.35,VWS V14.01,2013-09-12 22:20:00,
2013-09-12 18:22:00,73.0,38.1,29.82,NNW,330,3.7,6.8,28,0.00,,,0.39,14.96,VWS V14.01,2013-09-12 22:22:00,
2013-09-12 18:23:00,72.9,38.2,29.82,NNW,344,0.0,6.8,28,0.00,,,0.39,14.47,VWS V14.01,2013-09-12 22:23:00,
2013-09-12 18:25:00,72.9,38.8,29.84,NNE,15,4.4,6.8,29,0.00,,,0.39,9.83,VWS V14.01,2013-09-12 22:25:00,
2013-09-12 18:26:00,72.6,39.0,29.83,North,6,2.7,6.8,29,0.00,,,0.39,9.28,VWS V14.01,2013-09-12 22:26:00,
2013-09-12 18:27:00,72.4,39.2,29.82,WNW,294,4.2,6.8,30,0.00,,,0.39,10.81,VWS V14.01,2013-09-12 22:27:00,
2013-09-12 18:28:00,72.5,39.3,29.83,North,350,2.2,6.8,30,0.00,,,0.39,14.47,VWS V14.01,2013-09-12 22:28:00,
2013-09-12 18:29:00,72.9,39.3,29.83,NNW,331,5.4,6.8,30,0.00,,,0.39,17.52,VWS V14.01,2013-09-12 22:29:00,
2013-09-12 18:31:00,72.9,39.4,29.82,North,6,3.9,6.8,30,0.00,,,0.39,23.99,VWS V14.01,2013-09-12 22:31:00,
2013-09-12 18:32:00,72.8,39.3,29.82,NNW,344,2.8,6.8,30,0.00,,,0.39,24.24,VWS V14.01,2013-09-12 22:32:00,
2013-09-12 18:34:00,72.6,39.0,29.82,NW,307,1.1,6.8,30,0.00,,,0.39,19.35,VWS V14.01,2013-09-12 22:34:00,
2013-09-12 18:35:00,72.5,39.6,29.82,ESE,119,1.0,6.8,30,0.00,,,0.39,16.91,VWS V14.01,2013-09-12 22:35:00,
2013-09-12 18:36:00,72.4,39.1,29.83,West,266,1.5,6.8,30,0.00,,,0.39,12.03,VWS V14.01,2013-09-12 22:36:00,
2013-09-12 18:37:00,72.6,39.0,29.83,NNE,14,5.4,6.8,29,0.00,,,0.39,11.54,VWS V14.01,2013-09-12 22:37:00,
2013-09-12 18:39:00,72.6,39.6,29.83,NNE,27,4.7,6.8,30,0.00,,,0.39,9.58,VWS V14.01,2013-09-12 22:39:00,
2013-09-12 18:40:00,72.5,34.8,29.83,North,350,2.5,6.8,25,0.00,,,0.39,11.72,VWS V14.01,2013-09-12 22:40:00,
2013-09-12 18:41:00,72.5,34.8,29.83,North,350,2.5,6.8,25,0.00,,,0.39,11.72,VWS V14.01,2013-09-12 22:41:00,
2013-09-12 18:42:00,72.5,39.2,29.83,NE,49,4.2,6.8,30,0.00,,,0.39,13.49,VWS V14.01,2013-09-12 22:42:00,
2013-09-12 18:43:00,72.1,39.5,29.83,NNW,343,2.3,7.8,31,0.00,,,0.39,16.42,VWS V14.01,2013-09-12 22:43:00,
2013-09-12 18:46:00,71.9,39.9,29.83,NW,325,4.4,7.8,31,0.00,,,0.39,11.29,VWS V14.01,2013-09-12 22:46:00,
2013-09-12 18:47:00,71.9,39.9,29.83,NW,325,4.4,7.8,31,0.00,,,0.39,11.29,VWS V14.01,2013-09-12 22:47:00,
2013-09-12 18:51:00,71.9,39.9,29.83,North,1,3.7,7.8,31,0.00,,,0.39,11.42,VWS V14.01,2013-09-12 22:51:00,
2013-09-12 18:52:00,71.9,39.9,29.83,North,1,3.7,7.8,31,0.00,,,0.39,11.42,VWS V14.01,2013-09-12 22:52:00,
2013-09-12 18:54:00,71.2,39.9,29.84,NNW,328,2.3,7.8,32,0.00,,,0.39,8.36,VWS V14.01,2013-09-12 22:54:00,
2013-09-12 18:55:00,71.2,40.3,29.83,NW,326,2.3,7.8,33,0.00,,,0.39,7.75,VWS V14.01,2013-09-12 22:55:00,
2013-09-12 18:57:00,71.3,40.6,29.84,NW,323,6.1,7.8,33,0.00,,,0.39,7.14,VWS V14.01,2013-09-12 22:57:00,
2013-09-12 18:58:00,71.4,41.0,29.84,NNE,32,3.7,7.8,33,0.00,,,0.39,6.35,VWS V14.01,2013-09-12 22:58:00,
2013-09-12 18:59:00,71.2,40.7,29.84,North,6,2.5,7.8,33,0.00,,,0.39,5.07,VWS V14.01,2013-09-12 22:59:00,
2013-09-12 19:01:00,70.7,40.9,29.84,NW,326,3.9,3.9,34,0.00,,,0.39,4.70,VWS V14.01,2013-09-12 23:01:00,
2013-09-12 19:03:00,70.5,41.0,29.84,North,2,4.5,5.7,34,0.00,,,0.39,5.31,VWS V14.01,2013-09-12 23:03:00,
2013-09-12 19:04:00,70.5,41.0,29.84,North,2,4.5,5.7,34,0.00,,,0.39,5.31,VWS V14.01,2013-09-12 23:04:00,
2013-09-12 19:05:00,70.5,41.0,29.84,NNW,334,3.0,5.7,34,0.00,,,0.39,4.70,VWS V14.01,2013-09-12 23:05:00,
2013-09-12 19:06:00,70.5,41.0,29.84,NNW,334,3.0,5.7,34,0.00,,,0.39,4.70,VWS V14.01,2013-09-12 23:06:00,
2013-09-12 19:08:00,69.9,41.4,29.84,NW,310,5.7,5.7,36,0.00,,,0.39,4.70,VWS V14.01,2013-09-12 23:08:00,
2013-09-12 19:09:00,69.4,42.0,29.84,North,0,3.9,5.7,37,0.00,,,0.39,4.46,VWS V14.01,2013-09-12 23:09:00,
2013-09-12 19:10:00,69.4,42.0,29.84,North,0,3.9,5.7,37,0.00,,,0.39,4.46,VWS V14.01,2013-09-12 23:10:00,
2013-09-12 19:11:00,69.1,43.2,29.85,NNE,25,8.1,8.1,39,0.00,,,0.39,4.21,VWS V14.01,2013-09-12 23:11:00,
2013-09-12 19:13:00,67.4,44.0,29.85,NNW,342,3.7,9.2,43,0.00,,,0.39,4.33,VWS V14.01,2013-09-12 23:13:00,
2013-09-12 19:14:00,67.3,44.5,29.85,NW,326,3.0,9.2,44,0.00,,,0.39,4.82,VWS V14.01,2013-09-12 23:14:00,
2013-09-12 19:15:00,66.0,45.6,29.87,NNW,327,3.7,9.2,48,0.00,,,0.39,4.46,VWS V14.01,2013-09-12 23:15:00,
2013-09-12 19:17:00,65.6,47.3,29.85,WSW,244,0.0,9.2,52,0.04,,,0.43,3.72,VWS V14.01,2013-09-12 23:17:00,
2013-09-12 19:19:00,66.1,49.0,29.86,NW,321,2.7,9.2,54,0.04,,,0.43,2.63,VWS V14.01,2013-09-12 23:19:00,
2013-09-12 19:20:00,66.2,49.2,29.86,West,261,2.0,9.2,54,0.04,,,0.43,3.72,VWS V14.01,2013-09-12 23:20:00,
2013-09-12 19:22:00,66.7,50.8,29.87,NW,320,2.3,9.2,56,0.04,,,0.43,3.97,VWS V14.01,2013-09-12 23:22:00,
2013-09-12 19:24:00,65.7,50.8,29.86,NNW,337,2.8,9.2,59,0.04,,,0.43,4.70,VWS V14.01,2013-09-12 23:24:00,
2013-09-12 19:25:00,66.1,50.8,29.87,NW,320,2.3,9.2,58,0.04,,,0.43,5.19,VWS V14.01,2013-09-12 23:25:00,
2013-09-12 19:26:00,66.2,50.9,29.86,North,3,1.3,9.2,58,0.04,,,0.43,4.95,VWS V14.01,2013-09-12 23:26:00,
2013-09-12 19:29:00,66.3,50.8,29.87,NNE,25,2.7,9.2,57,0.04,,,0.43,4.70,VWS V14.01,2013-09-12 23:29:00,
2013-09-12 19:30:00,66.5,50.7,29.87,NNE,24,4.2,9.2,57,0.04,,,0.43,4.70,VWS V14.01,2013-09-12 23:30:00,
2013-09-12 19:31:00,66.5,50.3,29.87,NW,309,6.8,9.2,56,0.04,,,0.43,4.70,VWS V14.01,2013-09-12 23:31:00,
2013-09-12 19:35:00,65.2,51.1,29.88,NW,314,4.4,9.2,60,0.04,,,0.43,2.26,VWS V14.01,2013-09-12 23:35:00,
2013-09-12 19:36:00,64.4,51.2,29.88,WNW,283,0.0,9.2,62,0.04,,,0.43,2.26,VWS V14.01,2013-09-12 23:36:00,
2013-09-12 19:38:00,64.8,51.2,29.88,NNE,33,6.3,9.2,61,0.04,,,0.43,2.26,VWS V14.01,2013-09-12 23:38:00,
2013-09-12 19:41:00,64.7,50.8,29.89,ESE,107,4.5,9.2,61,0.04,,,0.43,2.26,VWS V14.01,2013-09-12 23:41:00,
2013-09-12 19:43:00,64.3,50.1,29.88,NE,37,3.4,9.2,60,0.04,,,0.43,1.95,VWS V14.01,2013-09-12 23:43:00,
2013-09-12 19:46:00,64.2,52.2,29.88,NE,49,3.4,9.2,65,0.04,,,0.43,1.77,VWS V14.01,2013-09-12 23:46:00,
2013-09-12 19:47:00,63.8,51.8,29.88,ENE,65,2.3,9.2,65,0.04,,,0.43,1.53,VWS V14.01,2013-09-12 23:47:00,
2013-09-12 19:48:00,63.7,52.1,29.88,NE,37,3.5,9.2,66,0.04,,,0.43,1.04,VWS V14.01,2013-09-12 23:48:00,
2013-09-12 19:49:00,64.1,52.4,29.88,North,4,3.4,9.2,66,0.04,,,0.43,1.04,VWS V14.01,2013-09-12 23:49:00,
2013-09-12 19:52:00,64.0,51.6,29.89,NE,40,4.9,9.2,64,0.04,,,0.43,0.12,VWS V14.01,2013-09-12 23:52:00,
2013-09-12 19:53:00,64.2,52.0,29.89,NNE,23,4.7,9.2,65,0.04,,,0.43,1.28,VWS V14.01,2013-09-12 23:53:00,
2013-09-12 19:54:00,63.7,52.6,29.89,NW,325,2.8,9.2,67,0.04,,,0.43,0.24,VWS V14.01,2013-09-12 23:54:00,
2013-09-12 19:58:00,62.7,52.3,29.90,NW,324,1.5,9.2,69,0.08,,,0.47,0.00,VWS V14.01,2013-09-12 23:58:00,
2013-09-12 19:59:00,61.7,52.2,29.90,NW,325,1.8,9.2,71,0.08,,,0.47,0.12,VWS V14.01,2013-09-12 23:59:00,
2013-09-12 20:00:00,61.8,52.3,29.90,NNE,14,3.2,9.2,71,0.08,,,0.47,0.00,VWS V14.01,2013-09-13 00:00:00,
2013-09-12 20:01:00,62.1,52.7,29.89,NNE,28,3.0,9.2,71,0.08,,,0.47,0.00,VWS V14.01,2013-09-13 00:01:00,
2013-09-12 20:05:00,61.8,53.6,29.90,NNW,348,4.5,4.5,75,0.12,,,0.51,0.43,VWS V14.01,2013-09-13 00:05:00,
2013-09-12 20:06:00,61.8,53.6,29.90,NNW,348,4.5,4.5,75,0.12,,,0.51,0.43,VWS V14.01,2013-09-13 00:06:00,
2013-09-12 20:07:00,61.7,53.2,29.90,NNE,15,5.1,7.6,74,0.12,,,0.51,0.00,VWS V14.01,2013-09-13 00:07:00,
2013-09-12 20:08:00,61.6,53.7,29.90,NNW,327,4.2,4.7,75,0.12,,,0.51,0.12,VWS V14.01,2013-09-13 00:08:00,
2013-09-12 20:11:00,61.7,53.6,29.90,NW,305,0.0,0.0,75,0.12,,,0.51,0.00,VWS V14.01,2013-09-13 00:11:00,
2013-09-12 20:12:00,61.9,54.1,29.90,NNE,18,2.8,3.9,76,0.12,,,0.51,0.43,VWS V14.01,2013-09-13 00:12:00,
2013-09-12 20:13:00,62.3,53.8,29.90,NNE,29,3.9,4.2,74,0.12,,,0.51,0.00,VWS V14.01,2013-09-13 00:13:00,
2013-09-12 20:16:00,62.1,52.5,29.90,NE,45,3.2,4.4,71,0.12,,,0.51,0.00,VWS V14.01,2013-09-13 00:16:00,
2013-09-12 20:17:00,62.2,53.7,29.90,NNE,14,3.4,4.4,74,0.12,,,0.51,0.00,VWS V14.01,2013-09-13 00:17:00,
2013-09-12 20:19:00,62.0,53.2,29.90,NNW,346,3.9,4.9,73,0.12,,,0.51,0.00,VWS V14.01,2013-09-13 00:19:00,
2013-09-12 20:22:00,62.1,53.0,29.89,ENE,64,3.0,5.6,72,0.12,,,0.51,0.00,VWS V14.01,2013-09-13 00:22:00,
2013-09-12 20:24:00,61.5,53.0,29.90,West,263,1.6,4.4,74,0.12,,,0.51,0.00,VWS V14.01,2013-09-13 00:24:00,
2013-09-12 20:26:00,61.5,53.8,29.90,NNE,21,0.0,2.5,76,0.12,,,0.51,0.00,VWS V14.01,2013-09-13 00:26:00,
2013-09-12 20:27:00,61.5,53.2,29.90,NNW,347,3.5,3.5,74,0.12,,,0.51,0.00,VWS V14.01,2013-09-13 00:27:00,
2013-09-12 20:30:00,61.2,52.7,29.90,NE,55,0.0,0.0,74,0.12,,,0.51,0.00,VWS V14.01,2013-09-13 00:30:00,
2013-09-12 20:31:00,61.5,53.0,29.90,NNE,15,2.5,2.5,74,0.12,,,0.51,0.37,VWS V14.01,2013-09-13 00:31:00,
2013-09-12 20:34:00,61.1,52.7,29.90,NNW,332,0.0,2.0,74,0.12,,,0.51,0.43,VWS V14.01,2013-09-13 00:34:00,
2013-09-12 20:36:00,61.3,52.8,29.91,NE,40,1.8,1.8,74,0.12,,,0.51,0.00,VWS V14.01,2013-09-13 00:36:00,
2013-09-12 20:37:00,61.2,52.9,29.90,WNW,299,0.0,1.8,74,0.12,,,0.51,0.73,VWS V14.01,2013-09-13 00:37:00,
2013-09-12 20:40:00,60.8,52.9,29.91,North,2,0.0,0.0,75,0.12,,,0.51,0.00,VWS V14.01,2013-09-13 00:40:00,
2013-09-12 20:41:00,60.8,52.9,29.91,North,2,0.0,0.0,75,0.12,,,0.51,0.00,VWS V14.01,2013-09-13 00:41:00,
2013-09-12 20:42:00,60.9,53.0,29.91,NW,304,0.0,1.3,75,0.12,,,0.51,0.00,VWS V14.01,2013-09-13 00:42:00,
2013-09-12 20:46:00,60.9,52.8,29.92,NNE,19,1.3,2.0,75,0.12,,,0.51,0.00,VWS V14.01,2013-09-13 00:46:00,
2013-09-12 20:47:00,60.4,52.6,29.92,NW,321,0.0,2.0,75,0.12,,,0.51,0.00,VWS V14.01,2013-09-13 00:47:00,
2013-09-12 20:48:00,60.3,52.6,29.91,NW,321,0.0,0.0,76,0.12,,,0.51,0.00,VWS V14.01,2013-09-13 00:48:00,
2013-09-12 20:49:00,60.6,53.0,29.91,NNE,21,0.0,0.0,76,0.12,,,0.51,0.12,VWS V14.01,2013-09-13 00:49:00,
2013-09-12 20:51:00,61.3,53.7,29.92,NNE,18,2.7,2.7,76,0.12,,,0.51,0.00,VWS V14.01,2013-09-13 00:51:00,
2013-09-12 20:52:00,60.9,52.8,29.95,NNW,331,1.1,2.8,75,0.12,,,0.51,0.00,VWS V14.01,2013-09-13 00:52:00,
2013-09-12 20:53:00,61.0,53.1,29.93,NE,42,2.0,2.0,75,0.12,,,0.51,0.00,VWS V14.01,2013-09-13 00:53:00,
2013-09-12 20:54:00,60.8,53.2,29.93,North,351,1.0,2.0,76,0.12,,,0.51,0.00,VWS V14.01,2013-09-13 00:54:00,
2013-09-12 20:58:00,60.4,53.1,29.92,WNW,303,0.0,1.6,77,0.12,,,0.51,0.00,VWS V14.01,2013-09-13 00:58:00,
2013-09-12 21:01:00,60.8,53.6,29.93,NNE,32,3.0,3.0,77,0.12,,,0.51,0.00,VWS V14.01,2013-09-13 01:01:00,
2013-09-12 21:02:00,60.7,53.2,29.92,NE,48,2.2,2.2,76,0.04,,,0.51,0.00,VWS V14.01,2013-09-13 01:02:00,
2013-09-12 21:04:00,60.2,52.9,29.92,North,3,0.0,0.0,77,0.04,,,0.51,0.00,VWS V14.01,2013-09-13 01:04:00,
2013-09-12 21:05:00,60.4,53.3,29.93,NNW,341,2.3,2.3,77,0.04,,,0.51,0.00,VWS V14.01,2013-09-13 01:05:00,
2013-09-12 21:07:00,60.7,53.3,29.93,NNE,12,0.0,0.0,77,0.00,,,0.51,0.00,VWS V14.01,2013-09-13 01:07:00,
2013-09-12 21:08:00,60.9,53.6,29.93,NE,37,2.8,2.8,77,0.00,,,0.51,0.00,VWS V14.01,2013-09-13 01:08:00,
2013-09-12 21:09:00,60.6,52.7,29.93,NE,35,1.1,1.1,75,0.00,,,0.51,0.00,VWS V14.01,2013-09-13 01:09:00,
2013-09-12 21:10:00,61.1,53.5,29.93,ENE,74,1.5,1.5,76,0.00,,,0.51,0.00,VWS V14.01,2013-09-13 01:10:00,
2013-09-12 21:13:00,60.2,52.3,29.93,NE,53,0.0,3.2,75,0.00,,,0.51,0.00,VWS V14.01,2013-09-13 01:13:00,
2013-09-12 21:14:00,60.7,52.9,29.94,West,261,0.0,0.0,75,0.00,,,0.51,0.00,VWS V14.01,2013-09-13 01:14:00,
2013-09-12 21:15:00,60.3,52.7,29.93,SW,221,0.0,0.0,76,0.00,,,0.51,0.43,VWS V14.01,2013-09-13 01:15:00,
2013-09-12 21:16:00,60.2,52.6,29.93,SW,221,0.0,0.0,76,0.00,,,0.51,0.00,VWS V14.01,2013-09-13 01:16:00,
2013-09-12 21:19:00,60.1,53.2,29.93,East,101,0.0,0.0,78,0.00,,,0.51,0.00,VWS V14.01,2013-09-13 01:19:00,
2013-09-12 21:20:00,60.4,53.4,29.93,NNW,335,0.0,0.0,78,0.00,,,0.51,0.00,VWS V14.01,2013-09-13 01:20:00,
2013-09-12 21:22:00,60.2,53.2,29.93,NW,308,0.0,0.0,78,0.00,,,0.51,0.00,VWS V14.01,2013-09-13 01:22:00,
2013-09-12 21:23:00,60.0,53.1,29.94,WNW,292,0.0,0.0,78,0.00,,,0.51,0.00,VWS V14.01,2013-09-13 01:23:00,
2013-09-12 21:25:00,60.4,53.3,29.94,NW,306,1.8,1.8,77,0.00,,,0.51,0.00,VWS V14.01,2013-09-13 01:25:00,
2013-09-12 21:27:00,60.2,53.1,29.92,NNW,329,0.0,0.0,77,0.00,,,0.51,0.00,VWS V14.01,2013-09-13 01:27:00,
2013-09-12 21:28:00,59.9,53.0,29.94,WNW,301,0.0,0.0,78,0.00,,,0.51,0.00,VWS V14.01,2013-09-13 01:28:00,
2013-09-12 21:30:00,60.0,52.9,29.94,ESE,105,0.0,0.0,78,0.00,,,0.51,0.00,VWS V14.01,2013-09-13 01:30:00,
2013-09-12 21:31:00,59.6,52.8,29.93,NW,323,1.0,2.0,78,0.00,,,0.51,0.00,VWS V14.01,2013-09-13 01:31:00,
2013-09-12 21:32:00,59.8,53.0,29.93,NW,323,0.0,1.0,78,0.00,,,0.51,0.00,VWS V14.01,2013-09-13 01:32:00,
2013-09-12 21:33:00,59.5,52.6,29.94,NNW,338,0.0,1.0,78,0.00,,,0.51,0.00,VWS V14.01,2013-09-13 01:33:00,
2013-09-12 21:36:00,60.0,53.3,29.94,NNW,337,1.1,2.5,78,0.00,,,0.51,0.00,VWS V14.01,2013-09-13 01:36:00,
2013-09-12 21:37:00,59.7,53.1,29.94,North,351,0.0,2.5,79,0.00,,,0.51,0.00,VWS V14.01,2013-09-13 01:37:00,
2013-09-12 21:38:00,59.9,53.0,29.94,North,351,1.6,3.4,78,0.00,,,0.51,0.00,VWS V14.01,2013-09-13 01:38:00,
2013-09-12 21:40:00,59.6,52.8,29.95,West,265,0.0,0.0,78,0.00,,,0.51,0.00,VWS V14.01,2013-09-13 01:40:00,
2013-09-12 21:42:00,59.7,53.1,29.94,NNE,32,0.0,0.0,79,0.00,,,0.51,0.12,VWS V14.01,2013-09-13 01:42:00,
2013-09-12 21:43:00,59.8,53.1,29.94,NNE,25,0.0,0.0,78,0.00,,,0.51,0.00,VWS V14.01,2013-09-13 01:43:00,
2013-09-12 21:44:00,59.5,52.8,29.97,North,4,0.0,0.0,79,0.00,,,0.51,0.00,VWS V14.01,2013-09-13 01:44:00,
2013-09-12 21:46:00,59.8,53.2,29.94,NE,37,4.4,4.4,79,0.00,,,0.51,0.00,VWS V14.01,2013-09-13 01:46:00,
2013-09-12 21:48:00,59.7,52.9,29.95,NE,52,0.0,0.0,78,0.00,,,0.51,0.00,VWS V14.01,2013-09-13 01:48:00,
2013-09-12 21:51:00,59.9,53.5,29.93,NE,47,2.2,2.2,79,0.00,,,0.51,0.00,VWS V14.01,2013-09-13 01:51:00,
2013-09-12 21:53:00,59.4,52.9,29.94,NNE,25,0.0,1.3,79,0.00,,,0.51,0.00,VWS V14.01,2013-09-13 01:53:00,
2013-09-12 21:54:00,59.2,52.9,29.94,NNE,25,0.0,0.0,80,0.00,,,0.51,0.00,VWS V14.01,2013-09-13 01:54:00,
2013-09-12 21:56:00,59.0,51.0,29.94,WNW,301,0.0,0.0,75,0.00,,,0.51,0.43,VWS V14.01,2013-09-13 01:56:00,
2013-09-12 21:57:00,59.1,53.1,29.94,West,277,0.0,0.0,81,0.00,,,0.51,0.00,VWS V14.01,2013-09-13 01:57:00,
2013-09-12 21:58:00,59.1,53.1,29.94,West,277,0.0,0.0,81,0.00,,,0.51,0.00,VWS V14.01,2013-09-13 01:58:00,
2013-09-12 21:59:00,58.8,52.9,29.95,NE,43,0.0,0.0,81,0.00,,,0.51,0.12,VWS V14.01,2013-09-13 01:59:00,
2013-09-12 22:01:00,59.2,53.5,29.94,NE,43,0.0,0.0,81,0.00,,,0.51,0.00,VWS V14.01,2013-09-13 02:01:00,
2013-09-12 22:03:00,58.5,53.2,29.95,WSW,257,0.0,0.0,82,0.00,,,0.51,0.00,VWS V14.01,2013-09-13 02:03:00,
2013-09-12 22:05:00,58.7,53.8,29.95,NW,307,0.0,0.0,84,0.00,,,0.51,0.00,VWS V14.01,2013-09-13 02:05:00,
2013-09-12 22:06:00,59.4,54.5,29.95,NW,309,0.0,0.0,84,0.00,,,0.51,0.12,VWS V14.01,2013-09-13 02:06:00,
2013-09-12 22:09:00,59.1,53.7,29.95,North,1,0.0,0.0,82,0.00,,,0.51,0.00,VWS V14.01,2013-09-13 02:09:00,
2013-09-12 22:10:00,58.9,53.6,29.94,North,9,0.0,0.0,83,0.00,,,0.51,0.43,VWS V14.01,2013-09-13 02:10:00,
2013-09-12 22:11:00,58.9,53.8,29.95,NNW,345,0.0,0.0,83,0.00,,,0.51,0.00,VWS V14.01,2013-09-13 02:11:00,
2013-09-12 22:12:00,59.1,54.2,29.95,NNW,346,0.0,0.0,84,0.00,,,0.51,0.00,VWS V14.01,2013-09-13 02:12:00,
2013-09-12 22:14:00,59.1,53.9,29.94,NW,325,0.0,0.0,83,0.00,,,0.51,0.00,VWS V14.01,2013-09-13 02:14:00,
2013-09-12 22:15:00,58.6,53.4,29.95,NNW,332,0.0,0.0,83,0.00,,,0.51,0.00,VWS V14.01,2013-09-13 02:15:00,
2013-09-12 22:17:00,59.2,54.3,29.95,WNW,290,0.0,0.0,84,0.00,,,0.51,0.00,VWS V14.01,2013-09-13 02:17:00,
2013-09-12 22:18:00,58.8,53.8,29.95,NNW,329,0.0,0.0,84,0.00,,,0.51,0.00,VWS V14.01,2013-09-13 02:18:00,
2013-09-12 22:22:00,58.8,53.9,29.95,NW,315,0.0,0.0,84,0.00,,,0.51,0.00,VWS V14.01,2013-09-13 02:22:00,
2013-09-12 22:23:00,58.9,54.0,29.95,NW,326,0.0,0.0,84,0.00,,,0.51,0.00,VWS V14.01,2013-09-13 02:23:00,
2013-09-12 22:25:00,58.7,53.7,29.95,NW,319,0.0,1.8,83,0.00,,,0.51,0.00,VWS V14.01,2013-09-13 02:25:00,
2013-09-12 22:26:00,59.0,54.1,29.95,NW,319,0.0,0.0,84,0.00,,,0.51,0.00,VWS V14.01,2013-09-13 02:26:00,
2013-09-12 22:28:00,59.2,54.2,29.95,NNE,31,1.6,1.6,83,0.00,,,0.51,0.43,VWS V14.01,2013-09-13 02:28:00,
2013-09-12 22:29:00,58.9,53.7,29.95,NW,315,0.0,0.0,83,0.00,,,0.51,0.00,VWS V14.01,2013-09-13 02:29:00,
2013-09-12 22:30:00,59.1,53.8,29.95,North,351,0.0,0.0,83,0.00,,,0.51,0.43,VWS V14.01,2013-09-13 02:30:00,
2013-09-12 22:32:00,58.7,53.2,29.94,ENE,72,0.0,0.0,82,0.00,,,0.51,0.00,VWS V14.01,2013-09-13 02:32:00,
2013-09-12 22:34:00,58.5,53.3,29.96,NNW,334,0.0,0.0,83,0.00,,,0.51,0.00,VWS V14.01,2013-09-13 02:34:00,
2013-09-12 22:35:00,58.4,53.2,29.96,NE,35,0.0,0.0,83,0.00,,,0.51,0.00,VWS V14.01,2013-09-13 02:35:00,
2013-09-12 22:37:00,58.6,53.6,29.95,NE,36,1.3,1.3,83,0.00,,,0.51,0.00,VWS V14.01,2013-09-13 02:37:00,
2013-09-12 22:38:00,58.6,53.5,29.95,NNE,25,1.6,2.7,83,0.00,,,0.51,0.00,VWS V14.01,2013-09-13 02:38:00,
2013-09-12 22:40:00,58.3,53.4,29.94,NW,304,0.0,0.0,84,0.00,,,0.51,0.00,VWS V14.01,2013-09-13 02:40:00,
2013-09-12 22:42:00,58.4,53.7,29.94,NNE,15,0.0,0.0,84,0.00,,,0.51,0.73,VWS V14.01,2013-09-13 02:42:00,
2013-09-12 22:43:00,58.2,53.6,29.95,North,10,0.0,0.0,85,0.00,,,0.51,0.00,VWS V14.01,2013-09-13 02:43:00,
2013-09-12 22:46:00,58.3,53.7,29.95,North,7,0.0,2.0,85,0.00,,,0.51,0.00,VWS V14.01,2013-09-13 02:46:00,
2013-09-12 22:47:00,57.9,53.2,29.95,NNE,20,0.0,0.0,84,0.00,,,0.51,0.00,VWS V14.01,2013-09-13 02:47:00,
2013-09-12 22:50:00,58.1,53.6,29.95,West,260,0.0,0.0,85,0.00,,,0.51,0.00,VWS V14.01,2013-09-13 02:50:00,
2013-09-12 22:51:00,58.3,53.9,29.95,NNE,27,0.0,0.0,85,0.00,,,0.51,0.00,VWS V14.01,2013-09-13 02:51:00,
2013-09-12 22:52:00,57.8,53.5,29.96,NNE,26,0.0,0.0,86,0.00,,,0.51,0.00,VWS V14.01,2013-09-13 02:52:00,
2013-09-12 22:53:00,58.1,53.9,29.95,NNE,25,1.5,1.5,86,0.00,,,0.51,0.00,VWS V14.01,2013-09-13 02:53:00,
2013-09-12 22:54:00,58.2,53.9,29.95,WNW,293,0.0,1.5,86,0.00,,,0.51,0.00,VWS V14.01,2013-09-13 02:54:00,
2013-09-12 22:57:00,57.8,53.5,29.96,NNW,347,0.0,0.0,86,0.00,,,0.51,0.00,VWS V14.01,2013-09-13 02:57:00,
2013-09-12 22:58:00,57.6,53.3,29.96,NNW,332,0.0,0.0,86,0.00,,,0.51,0.06,VWS V14.01,2013-09-13 02:58:00,
2013-09-12 22:59:00,57.2,53.0,29.94,NNW,332,0.0,0.0,86,0.00,,,0.51,0.73,VWS V14.01,2013-09-13 02:59:00,
2013-09-12 23:00:00,57.5,53.3,29.96,SW,219,0.0,0.0,86,0.00,,,0.00,0.00,VWS V14.01,2013-09-13 03:00:00,
2013-09-12 23:03:00,58.3,54.1,29.95,NNW,333,0.0,2.5,86,0.00,,,0.51,0.00,VWS V14.01,2013-09-13 03:03:00,
2013-09-12 23:04:00,57.8,53.5,29.96,NE,47,0.0,0.0,86,0.00,,,0.51,0.00,VWS V14.01,2013-09-13 03:04:00,
2013-09-12 23:05:00,58.0,53.7,29.95,NE,36,0.0,0.0,86,0.00,,,0.51,0.00,VWS V14.01,2013-09-13 03:05:00,
2013-09-12 23:08:00,57.7,53.6,29.96,North,4,0.0,0.0,86,0.00,,,0.51,0.00,VWS V14.01,2013-09-13 03:08:00,
2013-09-12 23:09:00,57.9,53.7,29.96,NNE,25,2.2,2.2,86,0.00,,,0.51,0.00,VWS V14.01,2013-09-13 03:09:00,
2013-09-12 23:10:00,57.8,53.5,29.96,NNE,16,0.0,2.2,85,0.00,,,0.51,0.00,VWS V14.01,2013-09-13 03:10:00,
2013-09-12 23:14:00,57.7,52.9,29.96,NNE,27,2.8,2.8,84,0.00,,,0.51,0.00,VWS V14.01,2013-09-13 03:14:00,
2013-09-12 23:15:00,58.0,52.9,29.95,WNW,301,2.7,2.7,83,0.00,,,0.51,0.00,VWS V14.01,2013-09-13 03:15:00,
2013-09-12 23:16:00,57.8,52.4,29.97,NNE,26,0.0,2.7,82,0.00,,,0.51,0.00,VWS V14.01,2013-09-13 03:16:00,
2013-09-12 23:20:00,57.9,51.9,29.96,NE,46,0.0,2.0,80,0.00,,,0.51,0.00,VWS V14.01,2013-09-13 03:20:00,
2013-09-12 23:21:00,57.5,51.5,29.95,NE,42,0.0,0.0,80,0.00,,,0.51,0.43,VWS V14.01,2013-09-13 03:21:00,
2013-09-12 23:22:00,56.9,51.0,29.96,SSE,162,0.0,0.0,80,0.00,,,0.51,0.00,VWS V14.01,2013-09-13 03:22:00,
2013-09-12 23:26:00,57.3,51.8,29.95,NE,47,0.0,0.0,82,0.00,,,0.51,0.00,VWS V14.01,2013-09-13 03:26:00,
2013-09-12 23:27:00,57.3,51.8,29.95,NE,47,0.0,0.0,82,0.00,,,0.51,0.00,VWS V14.01,2013-09-13 03:27:00,
2013-09-12 23:28:00,57.5,52.1,29.99,NE,47,1.8,1.8,82,0.00,,,0.51,0.00,VWS V14.01,2013-09-13 03:28:00,
2013-09-12 23:32:00,57.7,51.9,29.96,East,83,1.3,1.3,81,0.00,,,0.51,0.12,VWS V14.01,2013-09-13 03:32:00,
2013-09-12 23:33:00,57.0,51.2,29.95,NE,34,0.0,0.0,81,0.00,,,0.51,0.06,VWS V14.01,2013-09-13 03:33:00,
2013-09-12 23:35:00,56.4,50.5,29.97,West,264,0.0,0.0,81,0.00,,,0.51,0.00,VWS V14.01,2013-09-13 03:35:00,
2013-09-12 23:38:00,57.0,51.1,29.97,East,83,0.0,0.0,81,0.00,,,0.51,0.00,VWS V14.01,2013-09-13 03:38:00,
2013-09-12 23:40:00,56.8,50.1,29.98,NNE,13,0.0,0.0,78,0.00,,,0.51,0.00,VWS V14.01,2013-09-13 03:40:00,
2013-09-12 23:41:00,56.9,50.1,29.97,SW,217,0.0,0.0,78,0.00,,,0.51,0.00,VWS V14.01,2013-09-13 03:41:00,
2013-09-12 23:43:00,57.2,50.2,29.97,NE,40,0.0,0.0,78,0.00,,,0.51,0.00,VWS V14.01,2013-09-13 03:43:00,
2013-09-12 23:44:00,56.8,49.7,29.97,NE,49,0.0,0.0,77,0.00,,,0.51,0.00,VWS V14.01,2013-09-13 03:44:00,
2013-09-12 23:46:00,56.8,50.0,29.96,NNE,28,3.0,3.0,78,0.00,,,0.51,0.18,VWS V14.01,2013-09-13 03:46:00,
2013-09-12 23:47:00,56.9,49.7,29.97,North,352,0.0,3.0,77,0.00,,,0.51,0.00,VWS V14.01,2013-09-13 03:47:00,
2013-09-12 23:48:00,56.9,49.3,29.97,North,351,2.2,2.2,76,0.00,,,0.51,0.00,VWS V14.01,2013-09-13 03:48:00,
2013-09-12 23:49:00,57.3,49.4,29.96,NE,46,2.5,2.5,75,0.00,,,0.51,0.43,VWS V14.01,2013-09-13 03:49:00,
2013-09-12 23:50:00,56.8,48.7,29.97,West,275,0.0,0.0,74,0.00,,,0.51,0.00,VWS V14.01,2013-09-13 03:50:00,
2013-09-12 23:52:00,56.8,48.6,29.96,NW,326,0.0,1.0,74,0.00,,,0.51,0.00,VWS V14.01,2013-09-13 03:52:00,
2013-09-12 23:53:00,56.7,48.0,29.98,North,10,0.0,4.4,73,0.00,,,0.51,0.00,VWS V14.01,2013-09-13 03:53:00,
2013-09-12 23:55:00,56.7,48.1,29.97,East,86,0.0,0.0,73,0.00,,,0.51,0.73,VWS V14.01,2013-09-13 03:55:00,
2013-09-12 23:56:00,57.2,48.5,29.97,NW,315,0.0,2.5,73,0.00,,,0.51,0.00,VWS V14.01,2013-09-13 03:56:00,
2013-09-12 23:58:00,56.8,48.1,29.97,WNW,291,1.0,2.8,73,0.00,,,0.51,0.00,VWS V14.01,2013-09-13 03:58:00,